Wetterdaten: Mittwoch, 09.11.2022
Datum Zeit Temp. Aussen Temp. o. S. Temp +5cm Feuchte Auss Luftdruck Regen Sonnenschein Regendauer Solar Windben Empfang
09.11.2022 00:00 14,2 C 13,3 C 9,4 C 84 % 1007,0 hPa 0,0 l/m 0 min 0 min 0 W/m 6,4 km/h (2 Bft) 97,87 %
09.11.2022 00:02 14,2 C 13,3 C 9,4 C 84 % 1007,1 hPa 0,0 l/m 0 min 0 min 0 W/m 6,4 km/h (2 Bft) 97,62 %
09.11.2022 00:04 14,2 C 13,3 C 9,4 C 84 % 1007,1 hPa 0,0 l/m 0 min 0 min 0 W/m 6,4 km/h (2 Bft) 100,00 %
09.11.2022 00:07 14,1 C 12,8 C 9,4 C 85 % 1007,1 hPa 0,0 l/m 0 min 0 min 0 W/m 6,4 km/h (2 Bft) 96,49 %
09.11.2022 00:08 14,1 C 12,8 C 9,4 C 85 % 1007,1 hPa 0,0 l/m 0 min 0 min 0 W/m 6,4 km/h (2 Bft) 100,00 %
09.11.2022 00:12 14,1 C 12,8 C 9,4 C 85 % 1007,2 hPa 0,0 l/m 0 min 0 min 0 W/m 3,2 km/h (1 Bft) 98,04 %
09.11.2022 00:14 14,0 C 12,8 C 9,4 C 85 % 1007,2 hPa 0,0 l/m 0 min 0 min 0 W/m 6,4 km/h (2 Bft) 100,00 %
09.11.2022 00:16 13,9 C 12,8 C 9,4 C 85 % 1007,2 hPa 0,0 l/m 0 min 0 min 0 W/m 6,4 km/h (2 Bft) 91,49 %
09.11.2022 00:18 13,9 C 12,8 C 9,4 C 85 % 1007,2 hPa 0,0 l/m 0 min 0 min 0 W/m 12,9 km/h (3 Bft) 100,00 %
09.11.2022 00:20 13,9 C 12,8 C 9,4 C 85 % 1007,1 hPa 0,0 l/m 0 min 0 min 0 W/m 6,4 km/h (2 Bft) 100,00 %
09.11.2022 00:22 13,9 C 12,8 C 9,4 C 86 % 1007,1 hPa 0,0 l/m 0 min 0 min 0 W/m 3,2 km/h (1 Bft) 95,65 %
09.11.2022 00:24 13,8 C 12,8 C 9,4 C 86 % 1007,1 hPa 0,0 l/m 0 min 0 min 0 W/m 3,2 km/h (1 Bft) 97,87 %
09.11.2022 00:26 13,8 C 12,8 C 9,4 C 86 % 1007,1 hPa 0,0 l/m 0 min 0 min 0 W/m 6,4 km/h (2 Bft) 95,74 %
09.11.2022 00:28 13,8 C 12,8 C 9,4 C 86 % 1007,1 hPa 0,0 l/m 0 min 0 min 0 W/m 12,9 km/h (3 Bft) 95,74 %
09.11.2022 00:30 13,8 C 12,8 C 9,4 C 86 % 1007,1 hPa 0,0 l/m 0 min 0 min 0 W/m 3,2 km/h (1 Bft) 95,74 %
09.11.2022 00:32 13,8 C 12,8 C 9,4 C 86 % 1007,1 hPa 0,0 l/m 0 min 0 min 0 W/m 3,2 km/h (1 Bft) 91,49 %
09.11.2022 00:34 13,8 C 12,8 C 9,4 C 86 % 1007,0 hPa 0,0 l/m 0 min 0 min 0 W/m 6,4 km/h (2 Bft) 91,30 %
09.11.2022 00:36 13,7 C 12,8 C 9,4 C 86 % 1007,0 hPa 0,0 l/m 0 min 0 min 0 W/m 6,4 km/h (2 Bft) 93,62 %
09.11.2022 00:38 13,7 C 12,8 C 9,4 C 86 % 1007,1 hPa 0,0 l/m 0 min 0 min 0 W/m 6,4 km/h (2 Bft) 93,62 %
09.11.2022 00:40 13,7 C 12,8 C 9,4 C 86 % 1007,2 hPa 0,0 l/m 0 min 0 min 0 W/m 6,4 km/h (2 Bft) 95,74 %
09.11.2022 00:42 13,7 C 12,8 C 9,4 C 86 % 1007,2 hPa 0,0 l/m 0 min 0 min 0 W/m 6,4 km/h (2 Bft) 87,23 %
09.11.2022 00:44 13,7 C 12,8 C 9,4 C 86 % 1007,2 hPa 0,0 l/m 0 min 0 min 0 W/m 6,4 km/h (2 Bft) 91,49 %
09.11.2022 00:46 13,7 C 12,8 C 9,4 C 86 % 1007,1 hPa 0,0 l/m 0 min 0 min 0 W/m 6,4 km/h (2 Bft) 93,48 %
09.11.2022 00:48 13,7 C 12,8 C 9,4 C 86 % 1007,2 hPa 0,0 l/m 0 min 0 min 0 W/m 6,4 km/h (2 Bft) 91,49 %
09.11.2022 00:50 13,7 C 12,8 C 9,4 C 86 % 1007,1 hPa 0,0 l/m 0 min 0 min 0 W/m 6,4 km/h (2 Bft) 93,62 %
09.11.2022 00:52 13,7 C 12,8 C 9,4 C 86 % 1007,1 hPa 0,0 l/m 0 min 0 min 0 W/m 3,2 km/h (1 Bft) 91,49 %
09.11.2022 00:54 13,7 C 12,8 C 9,4 C 86 % 1007,1 hPa 0,0 l/m 0 min 0 min 0 W/m 6,4 km/h (2 Bft) 93,62 %
09.11.2022 00:56 13,7 C 12,8 C 9,4 C 86 % 1007,1 hPa 0,0 l/m 0 min 0 min 0 W/m 6,4 km/h (2 Bft) 93,62 %
09.11.2022 00:58 13,7 C 12,8 C 9,4 C 86 % 1007,0 hPa 0,0 l/m 0 min 0 min 0 W/m 6,4 km/h (2 Bft) 93,48 %
09.11.2022 01:00 13,7 C 12,8 C 9,4 C 86 % 1007,1 hPa 0,0 l/m 0 min 0 min 0 W/m 12,9 km/h (3 Bft) 95,74 %
09.11.2022 01:02 13,7 C 12,8 C 9,4 C 86 % 1007,1 hPa 0,0 l/m 0 min 0 min 0 W/m 9,7 km/h (2 Bft) 95,74 %
09.11.2022 01:04 13,7 C 12,8 C 9,4 C 86 % 1007,1 hPa 0,0 l/m 0 min 0 min 0 W/m 16,1 km/h (3 Bft) 95,74 %
09.11.2022 01:06 13,7 C 12,8 C 9,4 C 86 % 1007,0 hPa 0,0 l/m 0 min 0 min 0 W/m 6,4 km/h (2 Bft) 93,62 %
09.11.2022 01:08 13,7 C 12,8 C 9,4 C 86 % 1007,0 hPa 0,0 l/m 0 min 0 min 0 W/m 16,1 km/h (3 Bft) 95,74 %
09.11.2022 01:10 13,7 C 12,8 C 9,4 C 86 % 1007,0 hPa 0,0 l/m 0 min 0 min 0 W/m 9,7 km/h (2 Bft) 95,65 %
09.11.2022 01:12 13,8 C 12,8 C 9,4 C 86 % 1007,0 hPa 0,0 l/m 0 min 0 min 0 W/m 12,9 km/h (3 Bft) 97,87 %
09.11.2022 01:14 13,7 C 12,8 C 9,4 C 86 % 1007,0 hPa 0,0 l/m 0 min 0 min 0 W/m 12,9 km/h (3 Bft) 95,74 %
09.11.2022 01:16 13,7 C 12,8 C 9,4 C 86 % 1006,9 hPa 0,0 l/m 0 min 0 min 0 W/m 16,1 km/h (3 Bft) 97,87 %
09.11.2022 01:18 13,8 C 12,8 C 9,4 C 86 % 1006,9 hPa 0,0 l/m 0 min 0 min 0 W/m 6,4 km/h (2 Bft) 97,87 %
09.11.2022 01:20 13,8 C 12,8 C 9,4 C 86 % 1006,9 hPa 0,0 l/m 0 min 0 min 0 W/m 9,7 km/h (2 Bft) 97,87 %
09.11.2022 01:22 13,8 C 12,8 C 9,4 C 86 % 1006,8 hPa 0,0 l/m 0 min 0 min 0 W/m 16,1 km/h (3 Bft) 97,87 %
09.11.2022 01:24 13,8 C 12,8 C 9,4 C 86 % 1006,8 hPa 0,0 l/m 0 min 0 min 0 W/m 9,7 km/h (2 Bft) 100,00 %
09.11.2022 01:26 13,7 C 12,8 C 9,4 C 86 % 1006,8 hPa 0,0 l/m 0 min 0 min 0 W/m 12,9 km/h (3 Bft) 100,00 %
09.11.2022 01:28 13,8 C 12,8 C 9,4 C 86 % 1006,8 hPa 0,0 l/m 0 min 0 min 0 W/m 6,4 km/h (2 Bft) 97,87 %
09.11.2022 01:30 13,7 C 12,8 C 9,4 C 86 % 1006,8 hPa 0,0 l/m 0 min 0 min 0 W/m 19,3 km/h (3 Bft) 100,00 %
09.11.2022 01:32 13,7 C 12,8 C 9,4 C 86 % 1006,7 hPa 0,0 l/m 0 min 0 min 0 W/m 6,4 km/h (2 Bft) 100,00 %
09.11.2022 01:34 13,7 C 12,8 C 9,4 C 86 % 1006,7 hPa 0,0 l/m 0 min 0 min 0 W/m 12,9 km/h (3 Bft) 100,00 %
09.11.2022 01:36 13,7 C 12,8 C 9,4 C 86 % 1006,7 hPa 0,0 l/m 0 min 0 min 0 W/m 9,7 km/h (2 Bft) 100,00 %
09.11.2022 01:38 13,7 C 12,8 C 9,4 C 86 % 1006,7 hPa 0,0 l/m 0 min 0 min 0 W/m 3,2 km/h (1 Bft) 100,00 %
09.11.2022 01:40 13,7 C 12,8 C 8,9 C 86 % 1006,7 hPa 0,0 l/m 0 min 0 min 0 W/m 3,2 km/h (1 Bft) 100,00 %
09.11.2022 01:42 13,7 C 12,8 C 8,9 C 86 % 1006,7 hPa 0,0 l/m 0 min 0 min 0 W/m 3,2 km/h (1 Bft) 97,87 %
09.11.2022 01:44 13,7 C 12,8 C 8,9 C 86 % 1006,7 hPa 0,0 l/m 0 min 0 min 0 W/m 6,4 km/h (2 Bft) 100,00 %
09.11.2022 01:46 13,7 C 12,8 C 8,9 C 86 % 1006,8 hPa 0,0 l/m 0 min 0 min 0 W/m 3,2 km/h (1 Bft) 100,00 %
09.11.2022 01:48 13,7 C 12,8 C 8,9 C 86 % 1006,8 hPa 0,0 l/m 0 min 0 min 0 W/m 3,2 km/h (1 Bft) 100,00 %
09.11.2022 01:50 13,6 C 12,8 C 8,9 C 86 % 1006,8 hPa 0,0 l/m 0 min 0 min 0 W/m 3,2 km/h (1 Bft) 100,00 %
09.11.2022 01:52 13,6 C 12,8 C 8,9 C 86 % 1006,9 hPa 0,0 l/m 0 min 0 min 0 W/m 6,4 km/h (2 Bft) 100,00 %
09.11.2022 01:54 13,6 C 12,8 C 8,9 C 86 % 1006,8 hPa 0,0 l/m 0 min 0 min 0 W/m 12,9 km/h (3 Bft) 100,00 %
09.11.2022 01:56 13,6 C 12,8 C 8,9 C 86 % 1006,8 hPa 0,0 l/m 0 min 0 min 0 W/m 6,4 km/h (2 Bft) 100,00 %
09.11.2022 01:58 13,6 C 12,8 C 8,9 C 86 % 1006,9 hPa 0,0 l/m 0 min 0 min 0 W/m 12,9 km/h (3 Bft) 100,00 %
09.11.2022 02:00 13,6 C 12,8 C 8,9 C 86 % 1006,9 hPa 0,0 l/m 0 min 0 min 0 W/m 6,4 km/h (2 Bft) 100,00 %
09.11.2022 02:02 13,6 C 12,8 C 8,9 C 86 % 1006,9 hPa 0,0 l/m 0 min 0 min 0 W/m 6,4 km/h (2 Bft) 97,87 %
09.11.2022 02:04 13,6 C 12,8 C 8,9 C 86 % 1006,9 hPa 0,0 l/m 0 min 0 min 0 W/m 6,4 km/h (2 Bft) 100,00 %
09.11.2022 02:06 13,6 C 12,8 C 8,9 C 86 % 1007,0 hPa 0,0 l/m 0 min 0 min 0 W/m 6,4 km/h (2 Bft) 97,87 %
09.11.2022 02:08 13,6 C 12,8 C 8,9 C 86 % 1007,0 hPa 0,0 l/m 0 min 0 min 0 W/m 6,4 km/h (2 Bft) 100,00 %
09.11.2022 02:10 13,5 C 12,8 C 8,9 C 86 % 1007,0 hPa 0,0 l/m 0 min 0 min 0 W/m 9,7 km/h (2 Bft) 97,30 %
09.11.2022 02:12 13,5 C 12,8 C 8,9 C 86 % 1006,9 hPa 0,0 l/m 0 min 0 min 0 W/m 6,4 km/h (2 Bft) 100,00 %
09.11.2022 02:14 13,5 C 12,8 C 8,9 C 86 % 1006,9 hPa 0,0 l/m 0 min 0 min 0 W/m 6,4 km/h (2 Bft) 100,00 %
09.11.2022 02:16 13,5 C 12,8 C 8,9 C 86 % 1006,9 hPa 0,0 l/m 0 min 0 min 0 W/m 6,4 km/h (2 Bft) 97,87 %
09.11.2022 02:18 13,5 C 12,8 C 8,9 C 86 % 1007,0 hPa 0,0 l/m 0 min 0 min 0 W/m 3,2 km/h (1 Bft) 100,00 %
09.11.2022 02:20 13,4 C 12,8 C 8,9 C 86 % 1007,0 hPa 0,0 l/m 0 min 0 min 0 W/m 3,2 km/h (1 Bft) 95,74 %
09.11.2022 02:22 13,4 C 12,2 C 8,9 C 86 % 1007,0 hPa 0,0 l/m 0 min 0 min 0 W/m 9,7 km/h (2 Bft) 97,87 %
09.11.2022 02:24 13,4 C 12,2 C 8,9 C 86 % 1007,0 hPa 0,0 l/m 0 min 0 min 0 W/m 6,4 km/h (2 Bft) 100,00 %
09.11.2022 02:26 13,4 C 12,2 C 8,9 C 86 % 1007,1 hPa 0,0 l/m 0 min 0 min 0 W/m 6,4 km/h (2 Bft) 97,87 %
09.11.2022 02:28 13,4 C 12,2 C 8,9 C 86 % 1007,1 hPa 0,0 l/m 0 min 0 min 0 W/m 6,4 km/h (2 Bft) 95,74 %
09.11.2022 02:30 13,4 C 12,2 C 8,9 C 86 % 1007,1 hPa 0,0 l/m 0 min 0 min 0 W/m 6,4 km/h (2 Bft) 97,83 %
09.11.2022 02:32 13,3 C 12,2 C 8,9 C 86 % 1007,1 hPa 0,0 l/m 0 min 0 min 0 W/m 3,2 km/h (1 Bft) 97,87 %
09.11.2022 02:34 13,3 C 12,2 C 8,9 C 86 % 1007,1 hPa 0,0 l/m 0 min 0 min 0 W/m 19,3 km/h (3 Bft) 97,87 %
09.11.2022 02:36 13,3 C 12,2 C 8,9 C 86 % 1007,1 hPa 0,0 l/m 0 min 0 min 0 W/m 19,3 km/h (3 Bft) 97,87 %
09.11.2022 02:38 13,3 C 12,2 C 8,9 C 86 % 1007,1 hPa 0,0 l/m 0 min 0 min 0 W/m 12,9 km/h (3 Bft) 95,74 %
09.11.2022 02:40 13,3 C 12,2 C 8,9 C 86 % 1007,1 hPa 0,0 l/m 0 min 0 min 0 W/m 9,7 km/h (2 Bft) 97,87 %
09.11.2022 02:42 13,3 C 12,8 C 8,9 C 86 % 1007,1 hPa 0,0 l/m 0 min 0 min 0 W/m 6,4 km/h (2 Bft) 95,65 %
09.11.2022 02:44 13,3 C 12,8 C 8,9 C 86 % 1007,2 hPa 0,0 l/m 0 min 0 min 0 W/m 12,9 km/h (3 Bft) 96,30 %
09.11.2022 02:46 13,4 C 12,8 C 8,9 C 85 % 1007,2 hPa 0,0 l/m 0 min 0 min 0 W/m 9,7 km/h (2 Bft) 98,00 %
09.11.2022 02:48 13,4 C 12,8 C 8,9 C 85 % 1007,2 hPa 0,0 l/m 0 min 0 min 0 W/m 16,1 km/h (3 Bft) 97,30 %
09.11.2022 02:50 13,4 C 12,8 C 8,9 C 85 % 1007,2 hPa 0,0 l/m 0 min 0 min 0 W/m 16,1 km/h (3 Bft) 97,87 %
09.11.2022 02:52 13,4 C 12,8 C 8,9 C 85 % 1007,2 hPa 0,0 l/m 0 min 0 min 0 W/m 16,1 km/h (3 Bft) 97,87 %
09.11.2022 02:54 13,4 C 12,8 C 8,9 C 85 % 1007,1 hPa 0,0 l/m 0 min 0 min 0 W/m 9,7 km/h (2 Bft) 100,00 %
09.11.2022 02:56 13,4 C 12,8 C 8,9 C 85 % 1007,2 hPa 0,0 l/m 0 min 0 min 0 W/m 12,9 km/h (3 Bft) 100,00 %
09.11.2022 02:58 13,5 C 12,8 C 8,9 C 85 % 1007,2 hPa 0,0 l/m 0 min 0 min 0 W/m 12,9 km/h (3 Bft) 100,00 %
09.11.2022 03:00 13,5 C 12,8 C 8,9 C 85 % 1007,1 hPa 0,0 l/m 0 min 0 min 0 W/m 16,1 km/h (3 Bft) 97,87 %
09.11.2022 03:02 13,6 C 12,8 C 8,9 C 85 % 1007,2 hPa 0,0 l/m 0 min 0 min 0 W/m 6,4 km/h (2 Bft) 100,00 %
09.11.2022 03:04 13,6 C 12,8 C 8,9 C 85 % 1007,1 hPa 0,0 l/m 0 min 0 min 0 W/m 6,4 km/h (2 Bft) 100,00 %
09.11.2022 03:06 13,6 C 12,8 C 8,9 C 85 % 1007,1 hPa 0,0 l/m 0 min 0 min 0 W/m 19,3 km/h (3 Bft) 100,00 %
09.11.2022 03:08 13,6 C 12,8 C 8,9 C 84 % 1007,1 hPa 0,0 l/m 0 min 0 min 0 W/m 12,9 km/h (3 Bft) 97,83 %
09.11.2022 03:10 13,6 C 12,8 C 8,9 C 84 % 1007,1 hPa 0,0 l/m 0 min 0 min 0 W/m 12,9 km/h (3 Bft) 100,00 %
09.11.2022 03:12 13,6 C 12,8 C 8,9 C 84 % 1007,1 hPa 0,0 l/m 0 min 0 min 0 W/m 12,9 km/h (3 Bft) 100,00 %
09.11.2022 03:14 13,6 C 12,8 C 8,9 C 84 % 1007,1 hPa 0,0 l/m 0 min 0 min 0 W/m 12,9 km/h (3 Bft) 97,92 %
09.11.2022 03:16 13,6 C 12,8 C 8,9 C 84 % 1007,1 hPa 0,0 l/m 0 min 0 min 0 W/m 9,7 km/h (2 Bft) 97,83 %
09.11.2022 03:18 13,6 C 12,8 C 8,9 C 84 % 1007,1 hPa 0,0 l/m 0 min 0 min 0 W/m 9,7 km/h (2 Bft) 95,74 %
09.11.2022 03:20 13,6 C 12,8 C 8,9 C 84 % 1007,1 hPa 0,0 l/m 0 min 0 min 0 W/m 12,9 km/h (3 Bft) 95,74 %
09.11.2022 03:22 13,6 C 12,8 C 8,9 C 84 % 1007,1 hPa 0,0 l/m 0 min 0 min 0 W/m 6,4 km/h (2 Bft) 95,74 %
09.11.2022 03:24 13,6 C 12,8 C 8,9 C 84 % 1007,1 hPa 0,0 l/m 0 min 0 min 0 W/m 6,4 km/h (2 Bft) 93,62 %
09.11.2022 03:26 13,6 C 12,8 C 8,9 C 84 % 1007,1 hPa 0,0 l/m 0 min 0 min 0 W/m 6,4 km/h (2 Bft) 93,62 %
09.11.2022 03:28 13,6 C 12,8 C 8,9 C 84 % 1007,2 hPa 0,0 l/m 0 min 0 min 0 W/m 12,9 km/h (3 Bft) 95,65 %
09.11.2022 03:30 13,6 C 12,8 C 8,9 C 84 % 1007,1 hPa 0,0 l/m 0 min 0 min 0 W/m 19,3 km/h (3 Bft) 95,74 %
09.11.2022 03:32 13,6 C 12,8 C 8,9 C 84 % 1007,1 hPa 0,0 l/m 0 min 0 min 0 W/m 9,7 km/h (2 Bft) 91,49 %
09.11.2022 03:34 13,6 C 12,8 C 8,9 C 84 % 1007,1 hPa 0,0 l/m 0 min 0 min 0 W/m 16,1 km/h (3 Bft) 95,74 %
09.11.2022 03:36 13,5 C 12,8 C 8,9 C 84 % 1007,1 hPa 0,0 l/m 0 min 0 min 0 W/m 16,1 km/h (3 Bft) 91,49 %
09.11.2022 03:38 13,5 C 12,8 C 8,9 C 84 % 1007,1 hPa 0,0 l/m 0 min 0 min 0 W/m 16,1 km/h (3 Bft) 95,74 %
09.11.2022 03:40 13,5 C 12,8 C 8,9 C 84 % 1007,1 hPa 0,0 l/m 0 min 0 min 0 W/m 22,5 km/h (4 Bft) 95,65 %
09.11.2022 03:42 13,5 C 12,8 C 8,9 C 84 % 1007,1 hPa 0,0 l/m 0 min 0 min 0 W/m 12,9 km/h (3 Bft) 93,62 %
09.11.2022 03:44 13,5 C 12,8 C 8,9 C 84 % 1007,1 hPa 0,0 l/m 0 min 0 min 0 W/m 12,9 km/h (3 Bft) 89,36 %
09.11.2022 03:46 13,5 C 12,8 C 8,9 C 84 % 1007,2 hPa 0,0 l/m 0 min 0 min 0 W/m 16,1 km/h (3 Bft) 95,74 %
09.11.2022 03:48 13,5 C 12,8 C 8,9 C 84 % 1007,2 hPa 0,0 l/m 0 min 0 min 0 W/m 12,9 km/h (3 Bft) 95,74 %
09.11.2022 03:50 13,5 C 12,8 C 8,9 C 84 % 1007,2 hPa 0,0 l/m 0 min 0 min 0 W/m 16,1 km/h (3 Bft) 95,74 %
09.11.2022 03:52 13,5 C 12,8 C 8,9 C 84 % 1007,2 hPa 0,0 l/m 0 min 0 min 0 W/m 16,1 km/h (3 Bft) 95,65 %
09.11.2022 03:54 13,5 C 12,8 C 8,9 C 84 % 1007,2 hPa 0,0 l/m 0 min 0 min 0 W/m 6,4 km/h (2 Bft) 95,74 %
09.11.2022 03:56 13,5 C 12,2 C 8,9 C 84 % 1007,2 hPa 0,0 l/m 0 min 0 min 0 W/m 9,7 km/h (2 Bft) 95,74 %
09.11.2022 03:58 13,4 C 12,2 C 8,9 C 84 % 1007,2 hPa 0,0 l/m 0 min 0 min 0 W/m 12,9 km/h (3 Bft) 95,74 %
09.11.2022 04:00 13,4 C 12,2 C 8,9 C 84 % 1007,1 hPa 0,0 l/m 0 min 0 min 0 W/m 19,3 km/h (3 Bft) 97,87 %
09.11.2022 04:02 13,4 C 12,2 C 8,9 C 84 % 1007,1 hPa 0,0 l/m 0 min 0 min 0 W/m 12,9 km/h (3 Bft) 76,92 %
09.11.2022 04:04 13,4 C 12,2 C 8,9 C 84 % 1007,1 hPa 0,0 l/m 0 min 0 min 0 W/m 12,9 km/h (3 Bft) 94,00 %
09.11.2022 04:06 13,4 C 12,2 C 8,9 C 84 % 1007,1 hPa 0,0 l/m 0 min 0 min 0 W/m 12,9 km/h (3 Bft) 97,87 %
09.11.2022 04:08 13,4 C 12,8 C 8,9 C 84 % 1007,2 hPa 0,0 l/m 0 min 0 min 0 W/m 9,7 km/h (2 Bft) 97,83 %
09.11.2022 04:10 13,4 C 12,8 C 8,9 C 84 % 1007,2 hPa 0,0 l/m 0 min 0 min 0 W/m 16,1 km/h (3 Bft) 97,87 %
09.11.2022 04:12 13,4 C 12,8 C 8,9 C 84 % 1007,3 hPa 0,0 l/m 0 min 0 min 0 W/m 6,4 km/h (2 Bft) 97,87 %
09.11.2022 04:14 13,4 C 12,8 C 8,9 C 84 % 1007,3 hPa 0,0 l/m 0 min 0 min 0 W/m 9,7 km/h (2 Bft) 97,87 %
09.11.2022 04:16 13,4 C 12,8 C 8,9 C 84 % 1007,2 hPa 0,0 l/m 0 min 0 min 0 W/m 12,9 km/h (3 Bft) 95,74 %
09.11.2022 04:18 13,4 C 12,8 C 8,9 C 84 % 1007,3 hPa 0,0 l/m 0 min 0 min 0 W/m 12,9 km/h (3 Bft) 93,62 %
09.11.2022 04:20 13,4 C 12,8 C 8,9 C 84 % 1007,3 hPa 0,0 l/m 0 min 0 min 0 W/m 12,9 km/h (3 Bft) 97,83 %
09.11.2022 04:22 13,5 C 12,8 C 8,9 C 84 % 1007,3 hPa 0,0 l/m 0 min 0 min 0 W/m 9,7 km/h (2 Bft) 97,87 %
09.11.2022 04:24 13,5 C 12,8 C 8,9 C 84 % 1007,3 hPa 0,0 l/m 0 min 0 min 0 W/m 12,9 km/h (3 Bft) 97,87 %
09.11.2022 04:26 13,5 C 12,8 C 8,9 C 84 % 1007,3 hPa 0,0 l/m 0 min 0 min 0 W/m 12,9 km/h (3 Bft) 97,87 %
09.11.2022 04:28 13,5 C 12,8 C 8,9 C 84 % 1007,3 hPa 0,0 l/m 0 min 0 min 0 W/m 19,3 km/h (3 Bft) 97,87 %
09.11.2022 04:30 13,6 C 12,8 C 8,9 C 84 % 1007,3 hPa 0,0 l/m 0 min 0 min 0 W/m 9,7 km/h (2 Bft) 97,87 %
09.11.2022 04:32 13,6 C 12,8 C 8,9 C 84 % 1007,3 hPa 0,0 l/m 0 min 0 min 0 W/m 9,7 km/h (2 Bft) 97,83 %
09.11.2022 04:34 13,6 C 12,8 C 9,4 C 84 % 1007,3 hPa 0,0 l/m 0 min 0 min 0 W/m 12,9 km/h (3 Bft) 97,87 %
09.11.2022 04:36 13,6 C 12,8 C 9,4 C 84 % 1007,3 hPa 0,0 l/m 0 min 0 min 0 W/m 12,9 km/h (3 Bft) 97,87 %
09.11.2022 04:38 13,6 C 12,8 C 9,4 C 84 % 1007,3 hPa 0,0 l/m 0 min 0 min 0 W/m 19,3 km/h (3 Bft) 97,87 %
09.11.2022 04:40 13,6 C 12,8 C 9,4 C 84 % 1007,3 hPa 0,0 l/m 0 min 0 min 0 W/m 19,3 km/h (3 Bft) 97,87 %
09.11.2022 04:42 13,7 C 12,8 C 9,4 C 84 % 1007,3 hPa 0,0 l/m 0 min 0 min 0 W/m 9,7 km/h (2 Bft) 97,87 %
09.11.2022 04:44 13,7 C 13,3 C 9,4 C 84 % 1007,4 hPa 0,0 l/m 0 min 0 min 0 W/m 19,3 km/h (3 Bft) 97,83 %
09.11.2022 04:46 13,7 C 12,8 C 9,4 C 84 % 1007,4 hPa 0,0 l/m 0 min 0 min 0 W/m 9,7 km/h (2 Bft) 100,00 %
09.11.2022 04:48 13,8 C 12,8 C 9,4 C 84 % 1007,4 hPa 0,0 l/m 0 min 0 min 0 W/m 19,3 km/h (3 Bft) 100,00 %
09.11.2022 04:50 13,8 C 12,8 C 9,4 C 84 % 1007,5 hPa 0,0 l/m 0 min 0 min 0 W/m 19,3 km/h (3 Bft) 100,00 %
09.11.2022 04:52 13,8 C 12,8 C 9,4 C 84 % 1007,5 hPa 0,0 l/m 0 min 0 min 0 W/m 12,9 km/h (3 Bft) 100,00 %
09.11.2022 04:54 13,8 C 12,8 C 9,4 C 84 % 1007,5 hPa 0,0 l/m 0 min 0 min 0 W/m 12,9 km/h (3 Bft) 100,00 %
09.11.2022 04:56 13,8 C 12,8 C 9,4 C 84 % 1007,5 hPa 0,0 l/m 0 min 0 min 0 W/m 12,9 km/h (3 Bft) 100,00 %
09.11.2022 04:58 13,8 C 12,8 C 9,4 C 84 % 1007,5 hPa 0,0 l/m 0 min 0 min 0 W/m 9,7 km/h (2 Bft) 100,00 %
09.11.2022 05:00 13,8 C 12,8 C 9,4 C 83 % 1007,5 hPa 0,0 l/m 0 min 0 min 0 W/m 12,9 km/h (3 Bft) 100,00 %
09.11.2022 05:02 13,8 C 12,8 C 9,4 C 83 % 1007,5 hPa 0,0 l/m 0 min 0 min 0 W/m 6,4 km/h (2 Bft) 100,00 %
09.11.2022 05:04 13,8 C 12,8 C 9,4 C 84 % 1007,5 hPa 0,0 l/m 0 min 0 min 0 W/m 9,7 km/h (2 Bft) 100,00 %
09.11.2022 05:06 13,8 C 12,8 C 9,4 C 83 % 1007,6 hPa 0,0 l/m 0 min 0 min 0 W/m 12,9 km/h (3 Bft) 100,00 %
09.11.2022 05:08 13,8 C 12,8 C 9,4 C 84 % 1007,6 hPa 0,0 l/m 0 min 0 min 0 W/m 19,3 km/h (3 Bft) 97,87 %
09.11.2022 05:10 13,8 C 12,8 C 9,4 C 84 % 1007,6 hPa 0,0 l/m 0 min 0 min 0 W/m 9,7 km/h (2 Bft) 100,00 %
09.11.2022 05:12 13,8 C 12,8 C 9,4 C 84 % 1007,5 hPa 0,0 l/m 0 min 0 min 0 W/m 19,3 km/h (3 Bft) 100,00 %
09.11.2022 05:14 13,8 C 12,8 C 9,4 C 84 % 1007,5 hPa 0,0 l/m 0 min 0 min 0 W/m 16,1 km/h (3 Bft) 100,00 %
09.11.2022 05:16 13,8 C 12,8 C 9,4 C 84 % 1007,6 hPa 0,0 l/m 0 min 0 min 0 W/m 19,3 km/h (3 Bft) 97,87 %
09.11.2022 05:18 13,8 C 12,8 C 9,4 C 84 % 1007,6 hPa 0,0 l/m 0 min 0 min 0 W/m 9,7 km/h (2 Bft) 100,00 %
09.11.2022 05:20 13,8 C 13,3 C 9,4 C 84 % 1007,6 hPa 0,0 l/m 0 min 0 min 0 W/m 22,5 km/h (4 Bft) 100,00 %
09.11.2022 05:22 13,8 C 13,3 C 9,4 C 84 % 1007,6 hPa 0,0 l/m 0 min 0 min 0 W/m 12,9 km/h (3 Bft) 100,00 %
09.11.2022 05:24 13,8 C 13,3 C 9,4 C 84 % 1007,6 hPa 0,0 l/m 0 min 0 min 0 W/m 12,9 km/h (3 Bft) 97,87 %
09.11.2022 05:26 13,9 C 13,3 C 9,4 C 84 % 1007,6 hPa 0,0 l/m 0 min 0 min 0 W/m 12,9 km/h (3 Bft) 100,00 %
09.11.2022 05:28 13,9 C 12,8 C 9,4 C 84 % 1007,6 hPa 0,0 l/m 0 min 0 min 0 W/m 16,1 km/h (3 Bft) 97,87 %
09.11.2022 05:30 13,9 C 12,8 C 9,4 C 84 % 1007,7 hPa 0,0 l/m 0 min 0 min 0 W/m 16,1 km/h (3 Bft) 100,00 %
09.11.2022 05:32 13,9 C 12,8 C 9,4 C 84 % 1007,7 hPa 0,0 l/m 0 min 0 min 0 W/m 16,1 km/h (3 Bft) 100,00 %
09.11.2022 05:34 13,9 C 12,8 C 9,4 C 84 % 1007,7 hPa 0,0 l/m 0 min 0 min 0 W/m 16,1 km/h (3 Bft) 100,00 %
09.11.2022 05:36 13,9 C 12,8 C 9,4 C 84 % 1007,8 hPa 0,0 l/m 0 min 0 min 0 W/m 19,3 km/h (3 Bft) 100,00 %
09.11.2022 05:38 13,9 C 12,8 C 8,9 C 84 % 1007,9 hPa 0,0 l/m 0 min 0 min 0 W/m 19,3 km/h (3 Bft) 97,87 %
09.11.2022 05:40 13,9 C 12,8 C 8,9 C 84 % 1007,9 hPa 0,0 l/m 0 min 2 min 0 W/m 9,7 km/h (2 Bft) 100,00 %
09.11.2022 05:42 13,9 C 12,8 C 8,9 C 84 % 1007,9 hPa 0,0 l/m 0 min 2 min 0 W/m 9,7 km/h (2 Bft) 100,00 %
09.11.2022 05:44 13,9 C 12,8 C 8,3 C 84 % 1008,0 hPa 0,0 l/m 0 min 2 min 0 W/m 6,4 km/h (2 Bft) 100,00 %
09.11.2022 05:46 13,8 C 12,8 C 8,3 C 85 % 1008,0 hPa 0,0 l/m 0 min 2 min 0 W/m 12,9 km/h (3 Bft) 93,62 %
09.11.2022 05:48 13,8 C 12,8 C 8,3 C 85 % 1008,0 hPa 0,0 l/m 0 min 0 min 0 W/m 16,1 km/h (3 Bft) 100,00 %
09.11.2022 05:50 13,8 C 12,8 C 8,3 C 85 % 1008,0 hPa 0,0 l/m 0 min 0 min 0 W/m 12,9 km/h (3 Bft) 97,87 %
09.11.2022 05:52 13,8 C 12,8 C 8,3 C 85 % 1007,9 hPa 0,0 l/m 0 min 2 min 0 W/m 29,0 km/h (5 Bft) 100,00 %
09.11.2022 05:54 13,7 C 12,8 C 8,3 C 86 % 1007,9 hPa 0,0 l/m 0 min 2 min 0 W/m 12,9 km/h (3 Bft) 97,83 %
09.11.2022 05:56 13,7 C 12,8 C 8,3 C 86 % 1007,9 hPa 0,0 l/m 0 min 2 min 0 W/m 22,5 km/h (4 Bft) 97,87 %
09.11.2022 05:58 13,7 C 12,8 C 8,3 C 86 % 1007,9 hPa 0,0 l/m 0 min 0 min 0 W/m 9,7 km/h (2 Bft) 97,87 %
09.11.2022 06:00 13,7 C 12,8 C 8,3 C 86 % 1007,9 hPa 0,0 l/m 0 min 0 min 0 W/m 16,1 km/h (3 Bft) 95,74 %
09.11.2022 06:02 13,6 C 12,8 C 8,3 C 86 % 1007,9 hPa 0,0 l/m 0 min 0 min 0 W/m 19,3 km/h (3 Bft) 97,87 %
09.11.2022 06:04 13,6 C 12,8 C 8,3 C 86 % 1007,9 hPa 0,0 l/m 0 min 0 min 0 W/m 12,9 km/h (3 Bft) 97,87 %
09.11.2022 06:08 13,6 C 12,8 C 8,3 C 86 % 1007,9 hPa 0,0 l/m 0 min 0 min 0 W/m 16,1 km/h (3 Bft) 95,79 %
09.11.2022 06:10 13,6 C 12,8 C 8,3 C 86 % 1008,0 hPa 0,0 l/m 0 min 0 min 0 W/m 12,9 km/h (3 Bft) 95,74 %
09.11.2022 06:12 13,6 C 12,8 C 8,3 C 86 % 1008,0 hPa 0,0 l/m 0 min 0 min 0 W/m 6,4 km/h (2 Bft) 95,74 %
09.11.2022 06:14 13,5 C 12,8 C 8,9 C 86 % 1008,0 hPa 0,0 l/m 0 min 0 min 0 W/m 16,1 km/h (3 Bft) 89,58 %
09.11.2022 06:16 13,5 C 12,8 C 8,9 C 86 % 1008,1 hPa 0,0 l/m 0 min 0 min 0 W/m 9,7 km/h (2 Bft) 95,74 %
09.11.2022 06:18 13,5 C 12,8 C 8,9 C 86 % 1008,1 hPa 0,0 l/m 0 min 0 min 0 W/m 19,3 km/h (3 Bft) 91,30 %
09.11.2022 06:20 13,5 C 12,8 C 8,9 C 86 % 1008,0 hPa 0,0 l/m 0 min 0 min 0 W/m 25,7 km/h (4 Bft) 93,62 %
09.11.2022 06:22 13,5 C 12,8 C 8,9 C 86 % 1008,1 hPa 0,0 l/m 0 min 0 min 0 W/m 22,5 km/h (4 Bft) 91,49 %
09.11.2022 06:24 13,5 C 12,8 C 8,9 C 87 % 1008,0 hPa 0,0 l/m 0 min 0 min 0 W/m 16,1 km/h (3 Bft) 93,62 %
09.11.2022 06:26 13,5 C 12,8 C 8,9 C 87 % 1007,9 hPa 0,0 l/m 0 min 0 min 0 W/m 29,0 km/h (5 Bft) 93,62 %
09.11.2022 06:28 13,5 C 12,8 C 8,9 C 87 % 1007,9 hPa 0,0 l/m 0 min 0 min 0 W/m 29,0 km/h (5 Bft) 93,48 %
09.11.2022 06:30 13,5 C 12,8 C 8,9 C 87 % 1007,9 hPa 0,0 l/m 0 min 0 min 0 W/m 16,1 km/h (3 Bft) 93,62 %
09.11.2022 06:32 13,5 C 12,8 C 8,9 C 87 % 1007,9 hPa 0,0 l/m 0 min 0 min 0 W/m 22,5 km/h (4 Bft) 91,49 %
09.11.2022 06:34 13,4 C 12,8 C 8,9 C 87 % 1007,8 hPa 0,0 l/m 0 min 0 min 0 W/m 9,7 km/h (2 Bft) 93,62 %
09.11.2022 06:36 13,4 C 12,2 C 8,9 C 87 % 1007,8 hPa 0,0 l/m 0 min 0 min 0 W/m 12,9 km/h (3 Bft) 91,49 %
09.11.2022 06:38 13,4 C 12,2 C 8,9 C 87 % 1007,7 hPa 0,0 l/m 0 min 0 min 0 W/m 12,9 km/h (3 Bft) 93,62 %
09.11.2022 06:40 13,4 C 12,2 C 8,9 C 87 % 1007,8 hPa 0,0 l/m 0 min 0 min 0 W/m 9,7 km/h (2 Bft) 95,74 %
09.11.2022 06:42 13,4 C 12,2 C 8,9 C 87 % 1007,7 hPa 0,0 l/m 0 min 0 min 0 W/m 16,1 km/h (3 Bft) 95,65 %
09.11.2022 06:44 13,4 C 12,2 C 8,9 C 87 % 1007,8 hPa 0,0 l/m 0 min 0 min 0 W/m 16,1 km/h (3 Bft) 97,87 %
09.11.2022 06:46 13,4 C 12,8 C 8,9 C 87 % 1007,8 hPa 0,0 l/m 0 min 0 min 0 W/m 25,7 km/h (4 Bft) 97,87 %
09.11.2022 06:48 13,4 C 12,8 C 8,9 C 87 % 1007,7 hPa 0,0 l/m 0 min 0 min 0 W/m 22,5 km/h (4 Bft) 95,74 %
09.11.2022 06:50 13,3 C 12,2 C 8,9 C 87 % 1007,8 hPa 0,0 l/m 0 min 0 min 0 W/m 22,5 km/h (4 Bft) 97,87 %
09.11.2022 06:52 13,3 C 12,2 C 8,9 C 87 % 1007,7 hPa 0,0 l/m 0 min 0 min 0 W/m 19,3 km/h (3 Bft) 97,83 %
09.11.2022 06:54 13,3 C 12,2 C 8,9 C 87 % 1007,7 hPa 0,0 l/m 0 min 0 min 0 W/m 22,5 km/h (4 Bft) 93,62 %
09.11.2022 06:56 13,3 C 12,2 C 8,9 C 87 % 1007,7 hPa 0,0 l/m 0 min 0 min 0 W/m 6,4 km/h (2 Bft) 95,74 %
09.11.2022 06:58 13,3 C 12,2 C 8,9 C 87 % 1007,8 hPa 0,0 l/m 0 min 0 min 0 W/m 22,5 km/h (4 Bft) 97,56 %
09.11.2022 07:00 13,3 C 12,2 C 8,9 C 87 % 1007,7 hPa 0,0 l/m 0 min 0 min 0 W/m 9,7 km/h (2 Bft) 97,87 %
09.11.2022 07:02 13,3 C 12,2 C 8,9 C 87 % 1007,8 hPa 0,0 l/m 0 min 0 min 0 W/m 22,5 km/h (4 Bft) 100,00 %
09.11.2022 07:04 13,3 C 12,2 C 8,9 C 87 % 1007,7 hPa 0,0 l/m 0 min 0 min 0 W/m 9,7 km/h (2 Bft) 100,00 %
09.11.2022 07:06 13,3 C 12,2 C 8,9 C 87 % 1007,7 hPa 0,0 l/m 0 min 0 min 0 W/m 9,7 km/h (2 Bft) 100,00 %
09.11.2022 07:08 13,3 C 12,2 C 8,9 C 87 % 1007,8 hPa 0,0 l/m 0 min 0 min 0 W/m 16,1 km/h (3 Bft) 97,83 %
09.11.2022 07:10 13,3 C 12,8 C 8,9 C 87 % 1007,8 hPa 0,0 l/m 0 min 0 min 0 W/m 25,7 km/h (4 Bft) 95,74 %
09.11.2022 07:12 13,3 C 12,8 C 8,9 C 87 % 1007,8 hPa 0,0 l/m 0 min 0 min 0 W/m 9,7 km/h (2 Bft) 100,00 %
09.11.2022 07:14 13,3 C 12,8 C 8,9 C 87 % 1007,7 hPa 0,0 l/m 0 min 0 min 0 W/m 12,9 km/h (3 Bft) 100,00 %
09.11.2022 07:16 13,3 C 12,8 C 8,9 C 87 % 1007,8 hPa 0,0 l/m 0 min 0 min 0 W/m 12,9 km/h (3 Bft) 100,00 %
09.11.2022 07:18 13,3 C 12,8 C 8,9 C 87 % 1007,9 hPa 0,0 l/m 0 min 0 min 0 W/m 22,5 km/h (4 Bft) 97,87 %
09.11.2022 07:20 13,3 C 12,8 C 8,9 C 87 % 1007,9 hPa 0,0 l/m 0 min 0 min 0 W/m 22,5 km/h (4 Bft) 100,00 %
09.11.2022 07:22 13,3 C 12,8 C 8,9 C 87 % 1007,9 hPa 0,0 l/m 0 min 0 min 0 W/m 19,3 km/h (3 Bft) 100,00 %
09.11.2022 07:24 13,3 C 12,8 C 8,9 C 87 % 1007,9 hPa 0,0 l/m 0 min 0 min 0 W/m 16,1 km/h (3 Bft) 100,00 %
09.11.2022 07:26 13,3 C 12,8 C 8,9 C 87 % 1007,9 hPa 0,0 l/m 0 min 0 min 0 W/m 19,3 km/h (3 Bft) 100,00 %
09.11.2022 07:28 13,3 C 12,8 C 8,9 C 87 % 1007,9 hPa 0,0 l/m 0 min 0 min 0 W/m 19,3 km/h (3 Bft) 97,87 %
09.11.2022 07:30 13,3 C 12,8 C 8,9 C 87 % 1007,9 hPa 0,0 l/m 0 min 0 min 0 W/m 19,3 km/h (3 Bft) 100,00 %
09.11.2022 07:32 13,3 C 12,8 C 8,9 C 87 % 1007,9 hPa 0,0 l/m 0 min 0 min 0 W/m 22,5 km/h (4 Bft) 100,00 %
09.11.2022 07:34 13,3 C 12,8 C 8,9 C 87 % 1007,9 hPa 0,0 l/m 0 min 0 min 0 W/m 12,9 km/h (3 Bft) 100,00 %
09.11.2022 07:36 13,3 C 12,8 C 8,9 C 87 % 1008,0 hPa 0,0 l/m 0 min 0 min 0 W/m 16,1 km/h (3 Bft) 100,00 %
09.11.2022 07:38 13,3 C 12,2 C 8,9 C 87 % 1008,0 hPa 0,0 l/m 0 min 0 min 0 W/m 16,1 km/h (3 Bft) 100,00 %
09.11.2022 07:40 13,3 C 12,2 C 8,9 C 86 % 1008,0 hPa 0,0 l/m 0 min 0 min 0 W/m 12,9 km/h (3 Bft) 100,00 %
09.11.2022 07:42 13,3 C 12,2 C 8,9 C 86 % 1008,0 hPa 0,0 l/m 0 min 0 min 0 W/m 16,1 km/h (3 Bft) 100,00 %
09.11.2022 07:44 13,3 C 12,2 C 8,9 C 86 % 1008,0 hPa 0,0 l/m 0 min 0 min 0 W/m 12,9 km/h (3 Bft) 100,00 %
09.11.2022 07:46 13,3 C 12,2 C 8,9 C 86 % 1008,0 hPa 0,0 l/m 0 min 0 min 0 W/m 6,4 km/h (2 Bft) 100,00 %
09.11.2022 07:48 13,2 C 12,2 C 8,9 C 86 % 1008,0 hPa 0,0 l/m 0 min 0 min 0 W/m 16,1 km/h (3 Bft) 100,00 %
09.11.2022 07:50 13,2 C 12,2 C 8,9 C 86 % 1008,1 hPa 0,0 l/m 0 min 0 min 0 W/m 25,7 km/h (4 Bft) 100,00 %
09.11.2022 07:52 13,2 C 12,2 C 8,9 C 87 % 1008,1 hPa 0,0 l/m 0 min 0 min 2 W/m 12,9 km/h (3 Bft) 100,00 %
09.11.2022 07:54 13,2 C 12,2 C 8,3 C 87 % 1008,1 hPa 0,0 l/m 0 min 0 min 5 W/m 19,3 km/h (3 Bft) 100,00 %
09.11.2022 07:56 13,1 C 12,2 C 8,3 C 87 % 1008,2 hPa 0,0 l/m 0 min 0 min 5 W/m 16,1 km/h (3 Bft) 97,87 %
09.11.2022 07:58 13,1 C 12,2 C 8,3 C 87 % 1008,2 hPa 0,0 l/m 0 min 0 min 5 W/m 16,1 km/h (3 Bft) 95,74 %
09.11.2022 08:00 13,1 C 12,2 C 8,3 C 87 % 1008,2 hPa 0,0 l/m 0 min 0 min 5 W/m 12,9 km/h (3 Bft) 100,00 %
09.11.2022 08:02 13,1 C 12,2 C 8,3 C 87 % 1008,2 hPa 0,0 l/m 0 min 0 min 7 W/m 19,3 km/h (3 Bft) 97,83 %
09.11.2022 08:04 13,0 C 12,2 C 8,3 C 87 % 1008,3 hPa 0,0 l/m 0 min 0 min 7 W/m 19,3 km/h (3 Bft) 68,09 %
09.11.2022 08:06 13,0 C 11,7 C 8,3 C 87 % 1008,3 hPa 0,0 l/m 0 min 0 min 8 W/m 9,7 km/h (2 Bft) 84,09 %
09.11.2022 08:08 12,9 C 11,7 C 8,3 C 87 % 1008,3 hPa 0,0 l/m 0 min 0 min 9 W/m 12,9 km/h (3 Bft) 97,96 %
09.11.2022 08:10 12,9 C 11,7 C 8,3 C 87 % 1008,3 hPa 0,0 l/m 0 min 0 min 9 W/m 19,3 km/h (3 Bft) 95,74 %
09.11.2022 08:12 12,9 C 11,7 C 8,3 C 87 % 1008,4 hPa 0,0 l/m 0 min 0 min 9 W/m 19,3 km/h (3 Bft) 97,87 %
09.11.2022 08:14 12,9 C 11,7 C 8,3 C 88 % 1008,4 hPa 0,0 l/m 0 min 0 min 10 W/m 12,9 km/h (3 Bft) 97,87 %
09.11.2022 08:16 12,8 C 11,7 C 8,3 C 88 % 1008,4 hPa 0,0 l/m 0 min 0 min 11 W/m 12,9 km/h (3 Bft) 97,87 %
09.11.2022 08:18 12,8 C 11,7 C 8,3 C 88 % 1008,5 hPa 0,0 l/m 0 min 0 min 11 W/m 19,3 km/h (3 Bft) 97,83 %
09.11.2022 08:20 12,8 C 11,7 C 8,3 C 88 % 1008,5 hPa 0,0 l/m 0 min 0 min 11 W/m 12,9 km/h (3 Bft) 97,87 %
09.11.2022 08:22 12,8 C 11,7 C 8,3 C 88 % 1008,5 hPa 0,0 l/m 0 min 0 min 11 W/m 9,7 km/h (2 Bft) 93,62 %
09.11.2022 08:24 12,7 C 11,7 C 8,3 C 88 % 1008,5 hPa 0,0 l/m 0 min 0 min 12 W/m 9,7 km/h (2 Bft) 97,87 %
09.11.2022 08:26 12,7 C 11,7 C 8,3 C 88 % 1008,6 hPa 0,0 l/m 0 min 0 min 12 W/m 9,7 km/h (2 Bft) 93,62 %
09.11.2022 08:28 12,7 C 11,7 C 8,3 C 88 % 1008,6 hPa 0,0 l/m 0 min 0 min 12 W/m 3,2 km/h (1 Bft) 95,74 %
09.11.2022 08:30 12,7 C 11,7 C 8,3 C 88 % 1008,7 hPa 0,0 l/m 0 min 0 min 14 W/m 12,9 km/h (3 Bft) 95,65 %
09.11.2022 08:32 12,7 C 11,7 C 8,3 C 88 % 1008,6 hPa 0,0 l/m 0 min 0 min 16 W/m 16,1 km/h (3 Bft) 97,87 %
09.11.2022 08:34 12,7 C 11,7 C 8,3 C 88 % 1008,7 hPa 0,0 l/m 0 min 0 min 18 W/m 6,4 km/h (2 Bft) 95,74 %
09.11.2022 08:36 12,6 C 11,7 C 8,3 C 88 % 1008,6 hPa 0,0 l/m 0 min 0 min 19 W/m 6,4 km/h (2 Bft) 100,00 %
09.11.2022 08:38 12,6 C 11,7 C 8,3 C 88 % 1008,6 hPa 0,0 l/m 0 min 0 min 19 W/m 3,2 km/h (1 Bft) 100,00 %
09.11.2022 08:40 12,6 C 11,7 C 8,3 C 88 % 1008,6 hPa 0,0 l/m 0 min 0 min 20 W/m 3,2 km/h (1 Bft) 93,62 %
09.11.2022 08:42 12,6 C 11,7 C 8,3 C 88 % 1008,7 hPa 0,0 l/m 0 min 0 min 23 W/m 3,2 km/h (1 Bft) 97,83 %
09.11.2022 08:44 12,6 C 11,7 C 8,3 C 88 % 1008,7 hPa 0,0 l/m 0 min 0 min 25 W/m 6,4 km/h (2 Bft) 97,87 %
09.11.2022 08:46 12,6 C 11,7 C 8,3 C 88 % 1008,7 hPa 0,0 l/m 0 min 0 min 27 W/m 3,2 km/h (1 Bft) 95,74 %
09.11.2022 08:48 12,6 C 11,7 C 8,3 C 89 % 1008,8 hPa 0,0 l/m 0 min 0 min 28 W/m 6,4 km/h (2 Bft) 97,87 %
09.11.2022 08:50 12,6 C 11,7 C 8,3 C 89 % 1008,7 hPa 0,0 l/m 0 min 0 min 30 W/m 3,2 km/h (1 Bft) 95,74 %
09.11.2022 08:52 12,6 C 11,7 C 8,3 C 89 % 1008,7 hPa 0,0 l/m 0 min 0 min 31 W/m 16,1 km/h (3 Bft) 95,74 %
09.11.2022 08:54 12,6 C 11,7 C 8,3 C 89 % 1008,8 hPa 0,0 l/m 0 min 0 min 28 W/m 9,7 km/h (2 Bft) 97,87 %
09.11.2022 08:56 12,5 C 11,7 C 8,3 C 89 % 1008,8 hPa 0,0 l/m 0 min 0 min 31 W/m 6,4 km/h (2 Bft) 97,87 %
09.11.2022 08:58 12,5 C 11,7 C 8,3 C 89 % 1008,8 hPa 0,0 l/m 0 min 0 min 30 W/m 9,7 km/h (2 Bft) 93,18 %
09.11.2022 09:00 12,5 C 11,7 C 8,3 C 89 % 1008,8 hPa 0,0 l/m 0 min 0 min 32 W/m 9,7 km/h (2 Bft) 93,62 %
09.11.2022 09:02 12,5 C 11,7 C 8,3 C 89 % 1008,8 hPa 0,0 l/m 0 min 0 min 33 W/m 9,7 km/h (2 Bft) 97,87 %
09.11.2022 09:04 12,5 C 11,7 C 8,3 C 89 % 1008,8 hPa 0,0 l/m 0 min 0 min 33 W/m 12,9 km/h (3 Bft) 95,92 %
09.11.2022 09:06 12,6 C 12,2 C 8,3 C 89 % 1008,8 hPa 0,0 l/m 0 min 0 min 34 W/m 12,9 km/h (3 Bft) 95,74 %
09.11.2022 09:08 12,6 C 12,2 C 8,3 C 89 % 1008,8 hPa 0,0 l/m 0 min 0 min 38 W/m 19,3 km/h (3 Bft) 95,74 %
09.11.2022 09:10 12,6 C 12,2 C 8,3 C 89 % 1008,8 hPa 0,0 l/m 0 min 0 min 40 W/m 22,5 km/h (4 Bft) 91,43 %
09.11.2022 09:12 12,6 C 12,2 C 8,3 C 89 % 1008,9 hPa 0,0 l/m 0 min 0 min 37 W/m 22,5 km/h (4 Bft) 95,74 %
09.11.2022 09:14 12,6 C 12,2 C 8,3 C 89 % 1008,9 hPa 0,0 l/m 0 min 0 min 39 W/m 19,3 km/h (3 Bft) 95,74 %
09.11.2022 09:16 12,6 C 12,2 C 8,3 C 89 % 1008,9 hPa 0,0 l/m 0 min 0 min 40 W/m 19,3 km/h (3 Bft) 91,49 %
09.11.2022 09:18 12,7 C 12,2 C 8,3 C 89 % 1008,9 hPa 0,0 l/m 0 min 0 min 45 W/m 19,3 km/h (3 Bft) 95,74 %
09.11.2022 09:20 12,7 C 12,2 C 8,3 C 89 % 1008,9 hPa 0,0 l/m 0 min 0 min 58 W/m 22,5 km/h (4 Bft) 96,36 %
09.11.2022 09:22 12,7 C 12,2 C 8,9 C 89 % 1008,8 hPa 0,0 l/m 0 min 0 min 50 W/m 19,3 km/h (3 Bft) 93,62 %
09.11.2022 09:24 12,8 C 12,2 C 8,9 C 89 % 1008,9 hPa 0,0 l/m 0 min 0 min 60 W/m 32,2 km/h (5 Bft) 95,74 %
09.11.2022 09:26 12,8 C 12,2 C 8,9 C 89 % 1008,9 hPa 0,0 l/m 0 min 0 min 57 W/m 22,5 km/h (4 Bft) 97,83 %
09.11.2022 09:28 12,8 C 12,8 C 8,9 C 88 % 1008,9 hPa 0,0 l/m 0 min 0 min 64 W/m 16,1 km/h (3 Bft) 95,74 %
09.11.2022 09:30 12,9 C 12,8 C 8,9 C 88 % 1008,9 hPa 0,0 l/m 0 min 0 min 81 W/m 29,0 km/h (5 Bft) 95,74 %
09.11.2022 09:32 12,9 C 12,8 C 8,9 C 88 % 1008,9 hPa 0,0 l/m 2 min 0 min 125 W/m 22,5 km/h (4 Bft) 97,87 %
09.11.2022 09:34 12,9 C 12,8 C 8,9 C 88 % 1009,0 hPa 0,0 l/m 0 min 0 min 109 W/m 19,3 km/h (3 Bft) 95,74 %
09.11.2022 09:36 13,0 C 12,8 C 8,9 C 88 % 1009,0 hPa 0,0 l/m 0 min 0 min 87 W/m 22,5 km/h (4 Bft) 97,87 %
09.11.2022 09:38 13,0 C 12,8 C 8,9 C 88 % 1009,0 hPa 0,0 l/m 0 min 0 min 110 W/m 22,5 km/h (4 Bft) 97,83 %
09.11.2022 09:40 13,1 C 12,8 C 8,9 C 88 % 1009,0 hPa 0,0 l/m 2 min 0 min 138 W/m 22,5 km/h (4 Bft) 95,74 %
09.11.2022 09:42 13,1 C 12,8 C 8,9 C 88 % 1009,0 hPa 0,0 l/m 2 min 0 min 150 W/m 19,3 km/h (3 Bft) 97,87 %
09.11.2022 09:44 13,1 C 12,8 C 8,9 C 88 % 1009,0 hPa 0,0 l/m 2 min 0 min 136 W/m 19,3 km/h (3 Bft) 97,87 %
09.11.2022 09:46 13,2 C 12,8 C 8,9 C 88 % 1009,0 hPa 0,0 l/m 0 min 0 min 120 W/m 16,1 km/h (3 Bft) 93,62 %
09.11.2022 09:48 13,2 C 13,3 C 8,9 C 87 % 1009,0 hPa 0,0 l/m 2 min 0 min 147 W/m 25,7 km/h (4 Bft) 97,83 %
09.11.2022 09:50 13,2 C 13,9 C 8,9 C 87 % 1009,0 hPa 0,0 l/m 2 min 0 min 157 W/m 19,3 km/h (3 Bft) 97,87 %
09.11.2022 09:52 13,3 C 14,4 C 9,4 C 87 % 1009,0 hPa 0,0 l/m 2 min 0 min 201 W/m 25,7 km/h (4 Bft) 95,74 %
09.11.2022 09:54 13,3 C 15,0 C 9,4 C 87 % 1009,0 hPa 0,0 l/m 2 min 0 min 180 W/m 29,0 km/h (5 Bft) 100,00 %
09.11.2022 09:56 13,4 C 15,6 C 9,4 C 87 % 1009,0 hPa 0,0 l/m 2 min 0 min 176 W/m 22,5 km/h (4 Bft) 100,00 %
09.11.2022 09:58 13,5 C 16,1 C 9,4 C 86 % 1009,0 hPa 0,0 l/m 2 min 0 min 206 W/m 35,4 km/h (5 Bft) 98,00 %
09.11.2022 10:00 13,6 C 16,7 C 9,4 C 86 % 1009,0 hPa 0,0 l/m 2 min 0 min 224 W/m 25,7 km/h (4 Bft) 95,74 %
09.11.2022 10:02 13,6 C 16,7 C 9,4 C 86 % 1008,9 hPa 0,0 l/m 2 min 0 min 234 W/m 19,3 km/h (3 Bft) 95,74 %
09.11.2022 10:04 13,7 C 16,7 C 9,4 C 86 % 1009,0 hPa 0,0 l/m 2 min 0 min 232 W/m 32,2 km/h (5 Bft) 97,96 %
09.11.2022 10:06 13,8 C 17,2 C 9,4 C 85 % 1009,0 hPa 0,0 l/m 2 min 0 min 250 W/m 45,1 km/h (6 Bft) 97,87 %
09.11.2022 10:08 13,8 C 16,7 C 9,4 C 85 % 1009,1 hPa 0,0 l/m 2 min 0 min 207 W/m 38,6 km/h (5 Bft) 95,74 %
09.11.2022 10:10 13,9 C 16,7 C 9,4 C 85 % 1009,1 hPa 0,0 l/m 2 min 0 min 240 W/m 22,5 km/h (4 Bft) 97,87 %
09.11.2022 10:12 14,0 C 17,2 C 9,4 C 85 % 1009,1 hPa 0,0 l/m 2 min 0 min 230 W/m 25,7 km/h (4 Bft) 97,87 %
09.11.2022 10:14 14,1 C 16,7 C 10,0 C 84 % 1009,1 hPa 0,0 l/m 2 min 0 min 241 W/m 19,3 km/h (3 Bft) 97,87 %
09.11.2022 10:16 14,1 C 16,1 C 10,0 C 84 % 1009,1 hPa 0,0 l/m 2 min 0 min 271 W/m 25,7 km/h (4 Bft) 97,83 %
09.11.2022 10:18 14,2 C 15,6 C 10,0 C 84 % 1009,1 hPa 0,0 l/m 2 min 0 min 181 W/m 22,5 km/h (4 Bft) 97,87 %
09.11.2022 10:20 14,2 C 15,6 C 10,0 C 84 % 1009,1 hPa 0,0 l/m 2 min 0 min 165 W/m 22,5 km/h (4 Bft) 97,87 %
09.11.2022 10:22 14,3 C 15,6 C 10,0 C 84 % 1009,2 hPa 0,0 l/m 2 min 0 min 241 W/m 19,3 km/h (3 Bft) 95,74 %
09.11.2022 10:24 14,3 C 14,4 C 10,0 C 83 % 1009,3 hPa 0,0 l/m 0 min 0 min 107 W/m 38,6 km/h (5 Bft) 97,87 %
09.11.2022 10:26 14,3 C 15,0 C 10,0 C 83 % 1009,3 hPa 0,0 l/m 0 min 0 min 101 W/m 29,0 km/h (5 Bft) 95,74 %
09.11.2022 10:28 14,3 C 15,0 C 10,0 C 83 % 1009,2 hPa 0,0 l/m 2 min 0 min 213 W/m 35,4 km/h (5 Bft) 97,83 %
09.11.2022 10:30 14,3 C 15,6 C 10,0 C 83 % 1009,2 hPa 0,0 l/m 2 min 0 min 159 W/m 22,5 km/h (4 Bft) 97,87 %
09.11.2022 10:32 14,3 C 15,6 C 10,0 C 82 % 1009,1 hPa 0,0 l/m 0 min 0 min 126 W/m 32,2 km/h (5 Bft) 97,87 %
09.11.2022 10:34 14,3 C 15,6 C 10,0 C 82 % 1009,2 hPa 0,0 l/m 2 min 0 min 190 W/m 29,0 km/h (5 Bft) 97,87 %
09.11.2022 10:36 14,3 C 15,6 C 10,0 C 82 % 1009,2 hPa 0,0 l/m 2 min 0 min 161 W/m 19,3 km/h (3 Bft) 97,87 %
09.11.2022 10:38 14,3 C 15,6 C 10,0 C 82 % 1009,2 hPa 0,0 l/m 2 min 0 min 167 W/m 25,7 km/h (4 Bft) 97,87 %
09.11.2022 10:40 14,3 C 16,1 C 10,0 C 81 % 1009,3 hPa 0,0 l/m 2 min 0 min 197 W/m 32,2 km/h (5 Bft) 100,00 %
09.11.2022 10:42 14,4 C 15,6 C 10,0 C 81 % 1009,3 hPa 0,0 l/m 2 min 0 min 207 W/m 29,0 km/h (5 Bft) 100,00 %
09.11.2022 10:44 14,4 C 15,6 C 10,0 C 81 % 1009,3 hPa 0,0 l/m 0 min 0 min 100 W/m 19,3 km/h (3 Bft) 100,00 %
09.11.2022 10:46 14,4 C 15,0 C 10,0 C 80 % 1009,3 hPa 0,0 l/m 0 min 0 min 138 W/m 29,0 km/h (5 Bft) 100,00 %
09.11.2022 10:48 14,4 C 15,0 C 10,0 C 80 % 1009,3 hPa 0,0 l/m 2 min 0 min 179 W/m 35,4 km/h (5 Bft) 100,00 %
09.11.2022 10:50 14,5 C 15,0 C 10,6 C 80 % 1009,4 hPa 0,0 l/m 2 min 0 min 239 W/m 32,2 km/h (5 Bft) 100,00 %
09.11.2022 10:52 14,6 C 15,0 C 10,0 C 79 % 1009,5 hPa 0,0 l/m 0 min 0 min 136 W/m 38,6 km/h (5 Bft) 100,00 %
09.11.2022 10:54 14,6 C 15,0 C 10,6 C 79 % 1009,4 hPa 0,0 l/m 0 min 0 min 154 W/m 25,7 km/h (4 Bft) 100,00 %
09.11.2022 10:56 14,6 C 15,0 C 10,6 C 79 % 1009,5 hPa 0,0 l/m 0 min 0 min 129 W/m 19,3 km/h (3 Bft) 100,00 %
09.11.2022 10:58 14,6 C 14,4 C 10,6 C 79 % 1009,5 hPa 0,0 l/m 0 min 0 min 90 W/m 38,6 km/h (5 Bft) 100,00 %
09.11.2022 11:00 14,7 C 14,4 C 10,6 C 78 % 1009,6 hPa 0,0 l/m 0 min 0 min 102 W/m 25,7 km/h (4 Bft) 100,00 %
09.11.2022 11:02 14,7 C 14,4 C 10,6 C 79 % 1009,6 hPa 0,0 l/m 0 min 0 min 121 W/m 19,3 km/h (3 Bft) 100,00 %
09.11.2022 11:04 14,7 C 14,4 C 10,6 C 79 % 1009,6 hPa 0,0 l/m 0 min 0 min 109 W/m 12,9 km/h (3 Bft) 100,00 %
09.11.2022 11:06 14,7 C 14,4 C 10,6 C 79 % 1009,6 hPa 0,0 l/m 0 min 0 min 108 W/m 22,5 km/h (4 Bft) 100,00 %
09.11.2022 11:08 14,8 C 14,4 C 10,6 C 78 % 1009,6 hPa 0,0 l/m 0 min 0 min 97 W/m 25,7 km/h (4 Bft) 100,00 %
09.11.2022 11:10 14,8 C 14,4 C 10,6 C 78 % 1009,6 hPa 0,0 l/m 0 min 0 min 98 W/m 19,3 km/h (3 Bft) 100,00 %
09.11.2022 11:12 14,8 C 14,4 C 10,6 C 78 % 1009,6 hPa 0,0 l/m 0 min 0 min 99 W/m 22,5 km/h (4 Bft) 97,87 %
09.11.2022 11:14 14,8 C 14,4 C 10,6 C 78 % 1009,6 hPa 0,0 l/m 0 min 0 min 102 W/m 19,3 km/h (3 Bft) 97,83 %
09.11.2022 11:16 14,8 C 14,4 C 10,6 C 78 % 1009,6 hPa 0,0 l/m 0 min 0 min 82 W/m 19,3 km/h (3 Bft) 100,00 %
09.11.2022 11:18 14,8 C 14,4 C 10,6 C 77 % 1009,7 hPa 0,0 l/m 0 min 0 min 88 W/m 32,2 km/h (5 Bft) 100,00 %
09.11.2022 11:20 14,8 C 14,4 C 10,6 C 77 % 1009,6 hPa 0,0 l/m 0 min 0 min 78 W/m 19,3 km/h (3 Bft) 100,00 %
09.11.2022 11:22 14,8 C 14,4 C 10,6 C 77 % 1009,6 hPa 0,0 l/m 0 min 0 min 87 W/m 29,0 km/h (5 Bft) 100,00 %
09.11.2022 11:24 14,8 C 14,4 C 10,6 C 77 % 1009,7 hPa 0,0 l/m 0 min 0 min 122 W/m 25,7 km/h (4 Bft) 97,87 %
09.11.2022 11:26 14,8 C 14,4 C 10,6 C 77 % 1009,7 hPa 0,0 l/m 0 min 0 min 104 W/m 19,3 km/h (3 Bft) 100,00 %
09.11.2022 11:28 14,8 C 14,4 C 10,6 C 77 % 1009,8 hPa 0,0 l/m 0 min 0 min 99 W/m 25,7 km/h (4 Bft) 97,87 %
09.11.2022 11:30 14,8 C 14,4 C 10,6 C 77 % 1009,7 hPa 0,0 l/m 0 min 0 min 100 W/m 22,5 km/h (4 Bft) 100,00 %
09.11.2022 11:32 14,9 C 14,4 C 10,6 C 77 % 1009,7 hPa 0,0 l/m 0 min 0 min 108 W/m 29,0 km/h (5 Bft) 100,00 %
09.11.2022 11:34 14,9 C 14,4 C 10,6 C 77 % 1009,7 hPa 0,0 l/m 0 min 0 min 112 W/m 29,0 km/h (5 Bft) 100,00 %
09.11.2022 11:36 14,9 C 15,0 C 10,6 C 77 % 1009,8 hPa 0,0 l/m 0 min 0 min 98 W/m 35,4 km/h (5 Bft) 95,74 %
09.11.2022 11:38 14,9 C 14,4 C 10,6 C 76 % 1009,7 hPa 0,0 l/m 0 min 0 min 93 W/m 35,4 km/h (5 Bft) 100,00 %
09.11.2022 11:40 15,0 C 14,4 C 10,6 C 76 % 1009,8 hPa 0,0 l/m 0 min 0 min 90 W/m 35,4 km/h (5 Bft) 100,00 %
09.11.2022 11:42 15,0 C 14,4 C 10,6 C 76 % 1009,8 hPa 0,0 l/m 0 min 0 min 87 W/m 35,4 km/h (5 Bft) 100,00 %
09.11.2022 11:44 15,0 C 14,4 C 10,6 C 75 % 1009,8 hPa 0,0 l/m 0 min 0 min 82 W/m 45,1 km/h (6 Bft) 97,87 %
09.11.2022 11:46 14,9 C 14,4 C 10,6 C 75 % 1009,7 hPa 0,0 l/m 0 min 0 min 80 W/m 48,3 km/h (6 Bft) 95,74 %
09.11.2022 11:48 14,9 C 14,4 C 10,6 C 75 % 1009,7 hPa 0,0 l/m 0 min 0 min 78 W/m 45,1 km/h (6 Bft) 97,87 %
09.11.2022 11:50 14,8 C 14,4 C 10,6 C 75 % 1009,7 hPa 0,0 l/m 0 min 0 min 76 W/m 38,6 km/h (5 Bft) 97,83 %
09.11.2022 11:52 14,8 C 14,4 C 10,6 C 75 % 1009,7 hPa 0,0 l/m 0 min 0 min 71 W/m 35,4 km/h (5 Bft) 95,74 %
09.11.2022 11:54 14,8 C 14,4 C 10,6 C 75 % 1009,7 hPa 0,0 l/m 0 min 0 min 65 W/m 35,4 km/h (5 Bft) 94,00 %
09.11.2022 11:56 14,7 C 13,9 C 10,0 C 75 % 1009,7 hPa 0,0 l/m 0 min 0 min 57 W/m 45,1 km/h (6 Bft) 95,74 %
09.11.2022 11:58 14,6 C 13,9 C 10,0 C 75 % 1009,8 hPa 0,0 l/m 0 min 0 min 59 W/m 38,6 km/h (5 Bft) 95,92 %
09.11.2022 12:00 14,6 C 13,9 C 10,0 C 76 % 1009,8 hPa 0,0 l/m 0 min 0 min 62 W/m 29,0 km/h (5 Bft) 95,74 %
09.11.2022 12:02 14,6 C 14,4 C 10,0 C 76 % 1009,8 hPa 0,0 l/m 0 min 0 min 65 W/m 16,1 km/h (3 Bft) 95,74 %
09.11.2022 12:04 14,6 C 13,9 C 10,0 C 76 % 1009,8 hPa 0,0 l/m 0 min 0 min 60 W/m 48,3 km/h (6 Bft) 89,36 %
09.11.2022 12:08 14,6 C 14,4 C 10,0 C 76 % 1009,8 hPa 0,0 l/m 0 min 0 min 59 W/m 29,0 km/h (5 Bft) 91,76 %
09.11.2022 12:10 14,6 C 14,4 C 10,0 C 76 % 1009,7 hPa 0,0 l/m 0 min 0 min 63 W/m 22,5 km/h (4 Bft) 93,62 %
09.11.2022 12:12 14,6 C 14,4 C 10,0 C 75 % 1009,8 hPa 0,0 l/m 0 min 0 min 62 W/m 35,4 km/h (5 Bft) 93,48 %
09.11.2022 12:14 14,7 C 14,4 C 10,0 C 75 % 1009,8 hPa 0,0 l/m 0 min 0 min 66 W/m 38,6 km/h (5 Bft) 91,49 %
09.11.2022 12:16 14,7 C 14,4 C 10,6 C 76 % 1009,9 hPa 0,0 l/m 0 min 0 min 66 W/m 19,3 km/h (3 Bft) 91,49 %
09.11.2022 12:18 14,7 C 14,4 C 10,6 C 75 % 1009,8 hPa 0,0 l/m 0 min 0 min 69 W/m 25,7 km/h (4 Bft) 93,62 %
09.11.2022 12:20 14,7 C 14,4 C 10,6 C 75 % 1009,8 hPa 0,0 l/m 0 min 0 min 70 W/m 32,2 km/h (5 Bft) 91,49 %
09.11.2022 12:22 14,7 C 14,4 C 10,6 C 75 % 1009,8 hPa 0,0 l/m 0 min 0 min 69 W/m 32,2 km/h (5 Bft) 91,49 %
09.11.2022 12:24 14,8 C 14,4 C 10,6 C 75 % 1009,8 hPa 0,0 l/m 0 min 0 min 69 W/m 22,5 km/h (4 Bft) 93,48 %
09.11.2022 12:26 14,8 C 14,4 C 10,6 C 75 % 1009,9 hPa 0,0 l/m 0 min 0 min 63 W/m 41,8 km/h (6 Bft) 89,36 %
09.11.2022 12:28 14,8 C 14,4 C 10,6 C 75 % 1009,8 hPa 0,0 l/m 0 min 0 min 69 W/m 38,6 km/h (5 Bft) 93,62 %
09.11.2022 12:30 14,8 C 14,4 C 10,6 C 74 % 1009,8 hPa 0,0 l/m 0 min 0 min 61 W/m 35,4 km/h (5 Bft) 95,74 %
09.11.2022 12:32 14,8 C 14,4 C 10,6 C 75 % 1009,9 hPa 0,0 l/m 0 min 0 min 64 W/m 29,0 km/h (5 Bft) 92,00 %
09.11.2022 12:34 14,9 C 14,4 C 10,6 C 75 % 1009,9 hPa 0,0 l/m 0 min 0 min 73 W/m 25,7 km/h (4 Bft) 93,48 %
09.11.2022 12:36 14,9 C 14,4 C 10,6 C 75 % 1009,8 hPa 0,0 l/m 0 min 0 min 77 W/m 19,3 km/h (3 Bft) 95,74 %
09.11.2022 12:38 14,9 C 15,0 C 10,6 C 74 % 1009,8 hPa 0,0 l/m 0 min 0 min 94 W/m 41,8 km/h (6 Bft) 100,00 %
09.11.2022 12:40 14,9 C 14,4 C 10,6 C 74 % 1009,9 hPa 0,0 l/m 0 min 0 min 90 W/m 22,5 km/h (4 Bft) 100,00 %
09.11.2022 12:42 14,9 C 14,4 C 10,6 C 74 % 1009,8 hPa 0,0 l/m 0 min 0 min 91 W/m 38,6 km/h (5 Bft) 97,87 %
09.11.2022 12:44 14,9 C 15,0 C 10,6 C 74 % 1009,9 hPa 0,0 l/m 0 min 0 min 127 W/m 41,8 km/h (6 Bft) 100,00 %
09.11.2022 12:46 14,9 C 15,0 C 10,6 C 74 % 1009,9 hPa 0,0 l/m 0 min 0 min 141 W/m 51,5 km/h (7 Bft) 100,00 %
09.11.2022 12:48 14,9 C 15,0 C 10,6 C 74 % 1010,0 hPa 0,0 l/m 0 min 0 min 136 W/m 41,8 km/h (6 Bft) 100,00 %
09.11.2022 12:50 14,9 C 15,0 C 10,6 C 74 % 1010,0 hPa 0,0 l/m 0 min 0 min 141 W/m 29,0 km/h (5 Bft) 97,87 %
09.11.2022 12:52 14,9 C 15,6 C 10,6 C 74 % 1010,0 hPa 0,0 l/m 0 min 0 min 164 W/m 22,5 km/h (4 Bft) 97,87 %
09.11.2022 12:54 15,0 C 15,6 C 10,6 C 74 % 1010,1 hPa 0,0 l/m 2 min 0 min 286 W/m 22,5 km/h (4 Bft) 97,87 %
09.11.2022 12:56 15,1 C 15,0 C 10,6 C 74 % 1010,1 hPa 0,0 l/m 2 min 0 min 188 W/m 38,6 km/h (5 Bft) 97,87 %
09.11.2022 12:58 15,1 C 15,0 C 10,6 C 74 % 1010,0 hPa 0,0 l/m 0 min 0 min 115 W/m 41,8 km/h (6 Bft) 100,00 %
09.11.2022 13:00 15,1 C 15,0 C 10,6 C 74 % 1010,0 hPa 0,0 l/m 0 min 0 min 104 W/m 25,7 km/h (4 Bft) 97,87 %
09.11.2022 13:02 15,1 C 14,4 C 10,6 C 74 % 1010,1 hPa 0,0 l/m 0 min 0 min 104 W/m 29,0 km/h (5 Bft) 100,00 %
09.11.2022 13:04 15,0 C 14,4 C 10,6 C 74 % 1010,1 hPa 0,0 l/m 0 min 0 min 114 W/m 32,2 km/h (5 Bft) 100,00 %
09.11.2022 13:06 14,9 C 15,0 C 10,6 C 74 % 1010,1 hPa 0,0 l/m 2 min 0 min 223 W/m 35,4 km/h (5 Bft) 100,00 %
09.11.2022 13:08 15,0 C 15,0 C 10,6 C 74 % 1010,0 hPa 0,0 l/m 2 min 0 min 328 W/m 19,3 km/h (3 Bft) 97,87 %
09.11.2022 13:10 15,1 C 15,0 C 10,6 C 75 % 1010,0 hPa 0,0 l/m 2 min 0 min 265 W/m 22,5 km/h (4 Bft) 89,36 %
09.11.2022 13:12 15,1 C 15,0 C 10,6 C 75 % 1010,1 hPa 0,0 l/m 0 min 0 min 148 W/m 19,3 km/h (3 Bft) 100,00 %
09.11.2022 13:14 15,1 C 15,0 C 10,6 C 74 % 1010,0 hPa 0,0 l/m 0 min 0 min 128 W/m 35,4 km/h (5 Bft) 87,23 %
09.11.2022 13:16 15,1 C 15,0 C 10,6 C 74 % 1009,9 hPa 0,0 l/m 0 min 0 min 129 W/m 22,5 km/h (4 Bft) 100,00 %
09.11.2022 13:18 15,1 C 15,0 C 10,6 C 74 % 1009,9 hPa 0,0 l/m 2 min 0 min 215 W/m 32,2 km/h (5 Bft) 97,87 %
09.11.2022 13:20 15,1 C 15,0 C 10,6 C 74 % 1010,1 hPa 0,0 l/m 2 min 0 min 271 W/m 22,5 km/h (4 Bft) 100,00 %
09.11.2022 13:22 15,1 C 14,4 C 10,6 C 74 % 1010,0 hPa 0,0 l/m 0 min 0 min 126 W/m 35,4 km/h (5 Bft) 100,00 %
09.11.2022 13:24 15,0 C 14,4 C 10,6 C 74 % 1010,2 hPa 0,0 l/m 0 min 0 min 108 W/m 16,1 km/h (3 Bft) 100,00 %
09.11.2022 13:26 14,9 C 14,4 C 10,6 C 74 % 1010,1 hPa 0,0 l/m 0 min 0 min 119 W/m 32,2 km/h (5 Bft) 97,87 %
09.11.2022 13:28 14,9 C 14,4 C 10,6 C 74 % 1010,1 hPa 0,0 l/m 0 min 0 min 87 W/m 29,0 km/h (5 Bft) 100,00 %
09.11.2022 13:30 14,9 C 14,4 C 10,6 C 74 % 1010,1 hPa 0,0 l/m 0 min 0 min 92 W/m 32,2 km/h (5 Bft) 100,00 %
09.11.2022 13:32 14,8 C 14,4 C 10,6 C 74 % 1010,0 hPa 0,0 l/m 0 min 0 min 124 W/m 16,1 km/h (3 Bft) 95,74 %
09.11.2022 13:34 14,8 C 14,4 C 10,6 C 74 % 1010,1 hPa 0,0 l/m 0 min 0 min 144 W/m 32,2 km/h (5 Bft) 100,00 %
09.11.2022 13:36 14,8 C 14,4 C 10,6 C 74 % 1010,1 hPa 0,0 l/m 2 min 0 min 184 W/m 25,7 km/h (4 Bft) 100,00 %
09.11.2022 13:39 14,8 C 14,4 C 10,6 C 74 % 1010,1 hPa 0,0 l/m 3 min 0 min 176 W/m 35,4 km/h (5 Bft) 98,68 %
09.11.2022 13:40 14,8 C 14,4 C 10,6 C 74 % 1010,1 hPa 0,0 l/m 1 min 0 min 292 W/m 32,2 km/h (5 Bft) 100,00 %
09.11.2022 13:44 14,9 C 15,0 C 10,6 C 74 % 1010,1 hPa 0,0 l/m 4 min 0 min 188 W/m 22,5 km/h (4 Bft) 100,00 %
09.11.2022 13:46 14,9 C 15,0 C 10,6 C 74 % 1010,1 hPa 0,0 l/m 2 min 0 min 180 W/m 19,3 km/h (3 Bft) 100,00 %
09.11.2022 13:48 15,0 C 15,0 C 10,6 C 74 % 1010,1 hPa 0,0 l/m 2 min 0 min 246 W/m 32,2 km/h (5 Bft) 100,00 %
09.11.2022 13:50 15,1 C 15,0 C 10,6 C 74 % 1010,1 hPa 0,0 l/m 2 min 0 min 299 W/m 29,0 km/h (5 Bft) 100,00 %
09.11.2022 13:52 15,1 C 15,0 C 10,6 C 74 % 1010,1 hPa 0,0 l/m 2 min 0 min 218 W/m 25,7 km/h (4 Bft) 100,00 %
09.11.2022 13:54 15,1 C 15,0 C 10,6 C 74 % 1010,2 hPa 0,0 l/m 0 min 0 min 154 W/m 19,3 km/h (3 Bft) 100,00 %
09.11.2022 13:56 15,1 C 15,6 C 10,6 C 74 % 1010,2 hPa 0,0 l/m 2 min 0 min 406 W/m 22,5 km/h (4 Bft) 97,62 %
09.11.2022 13:58 15,2 C 15,6 C 10,6 C 74 % 1010,2 hPa 0,0 l/m 2 min 0 min 208 W/m 19,3 km/h (3 Bft) 100,00 %
09.11.2022 14:00 15,2 C 15,6 C 11,1 C 74 % 1010,2 hPa 0,0 l/m 2 min 0 min 293 W/m 25,7 km/h (4 Bft) 100,00 %
09.11.2022 14:02 15,2 C 16,1 C 10,6 C 73 % 1010,2 hPa 0,0 l/m 2 min 0 min 319 W/m 22,5 km/h (4 Bft) 100,00 %
09.11.2022 14:04 15,2 C 15,6 C 10,6 C 73 % 1010,1 hPa 0,0 l/m 2 min 0 min 228 W/m 29,0 km/h (5 Bft) 100,00 %
09.11.2022 14:06 15,2 C 15,6 C 10,6 C 74 % 1010,2 hPa 0,0 l/m 2 min 0 min 317 W/m 29,0 km/h (5 Bft) 97,87 %
09.11.2022 14:08 15,2 C 15,0 C 10,6 C 73 % 1010,2 hPa 0,0 l/m 2 min 0 min 153 W/m 25,7 km/h (4 Bft) 100,00 %
09.11.2022 14:10 15,2 C 15,0 C 10,6 C 73 % 1010,1 hPa 0,0 l/m 2 min 0 min 159 W/m 45,1 km/h (6 Bft) 97,87 %
09.11.2022 14:12 15,2 C 15,0 C 10,6 C 73 % 1010,1 hPa 0,0 l/m 2 min 0 min 247 W/m 25,7 km/h (4 Bft) 97,83 %
09.11.2022 14:14 15,2 C 15,0 C 10,6 C 73 % 1010,1 hPa 0,0 l/m 2 min 0 min 268 W/m 38,6 km/h (5 Bft) 97,87 %
09.11.2022 14:16 15,2 C 15,0 C 10,6 C 73 % 1010,2 hPa 0,0 l/m 2 min 0 min 291 W/m 29,0 km/h (5 Bft) 97,87 %
09.11.2022 14:18 15,2 C 15,0 C 10,6 C 73 % 1010,1 hPa 0,0 l/m 2 min 0 min 174 W/m 19,3 km/h (3 Bft) 97,87 %
09.11.2022 14:20 15,2 C 15,0 C 10,6 C 73 % 1010,2 hPa 0,0 l/m 0 min 0 min 125 W/m 19,3 km/h (3 Bft) 97,87 %
09.11.2022 14:22 15,1 C 15,0 C 10,6 C 73 % 1010,2 hPa 0,0 l/m 0 min 0 min 122 W/m 16,1 km/h (3 Bft) 97,87 %
09.11.2022 14:24 15,1 C 15,6 C 10,6 C 73 % 1010,1 hPa 0,0 l/m 2 min 0 min 200 W/m 25,7 km/h (4 Bft) 100,00 %
09.11.2022 14:26 15,1 C 15,6 C 10,6 C 73 % 1010,2 hPa 0,0 l/m 2 min 0 min 308 W/m 25,7 km/h (4 Bft) 93,62 %
09.11.2022 14:28 15,2 C 15,6 C 10,6 C 73 % 1010,1 hPa 0,0 l/m 2 min 0 min 241 W/m 22,5 km/h (4 Bft) 95,74 %
09.11.2022 14:30 15,2 C 15,6 C 10,6 C 73 % 1010,2 hPa 0,0 l/m 2 min 0 min 260 W/m 41,8 km/h (6 Bft) 93,62 %
09.11.2022 14:32 15,2 C 15,6 C 10,6 C 72 % 1010,2 hPa 0,0 l/m 2 min 0 min 250 W/m 32,2 km/h (5 Bft) 93,62 %
09.11.2022 14:34 15,2 C 16,1 C 10,6 C 72 % 1010,2 hPa 0,0 l/m 2 min 0 min 212 W/m 12,9 km/h (3 Bft) 97,83 %
09.11.2022 14:36 15,3 C 16,1 C 10,6 C 73 % 1010,2 hPa 0,0 l/m 2 min 0 min 282 W/m 16,1 km/h (3 Bft) 95,65 %
09.11.2022 14:38 15,3 C 15,6 C 10,6 C 72 % 1010,2 hPa 0,0 l/m 2 min 0 min 244 W/m 25,7 km/h (4 Bft) 95,74 %
09.11.2022 14:40 15,3 C 15,6 C 10,6 C 72 % 1010,2 hPa 0,0 l/m 2 min 0 min 204 W/m 32,2 km/h (5 Bft) 93,62 %
09.11.2022 14:42 15,3 C 15,0 C 10,6 C 72 % 1010,2 hPa 0,0 l/m 2 min 0 min 190 W/m 32,2 km/h (5 Bft) 93,62 %
09.11.2022 14:44 15,2 C 15,0 C 10,6 C 72 % 1010,3 hPa 0,0 l/m 2 min 0 min 208 W/m 25,7 km/h (4 Bft) 95,74 %
09.11.2022 14:46 15,2 C 15,0 C 10,6 C 72 % 1010,2 hPa 0,0 l/m 2 min 0 min 140 W/m 25,7 km/h (4 Bft) 95,74 %
09.11.2022 14:48 15,2 C 15,0 C 10,6 C 72 % 1010,3 hPa 0,0 l/m 2 min 0 min 152 W/m 19,3 km/h (3 Bft) 95,65 %
09.11.2022 14:50 15,2 C 15,0 C 10,6 C 72 % 1010,2 hPa 0,0 l/m 2 min 0 min 174 W/m 19,3 km/h (3 Bft) 97,87 %
09.11.2022 14:52 15,1 C 15,0 C 10,6 C 72 % 1010,3 hPa 0,0 l/m 2 min 0 min 147 W/m 25,7 km/h (4 Bft) 95,74 %
09.11.2022 14:54 15,1 C 14,4 C 10,6 C 72 % 1010,3 hPa 0,0 l/m 2 min 0 min 144 W/m 19,3 km/h (3 Bft) 95,74 %
09.11.2022 14:56 15,1 C 14,4 C 10,6 C 72 % 1010,4 hPa 0,0 l/m 0 min 0 min 113 W/m 19,3 km/h (3 Bft) 93,62 %
09.11.2022 14:58 15,1 C 14,4 C 10,6 C 73 % 1010,4 hPa 0,0 l/m 0 min 0 min 85 W/m 16,1 km/h (3 Bft) 95,74 %
09.11.2022 15:00 15,0 C 14,4 C 10,6 C 73 % 1010,4 hPa 0,0 l/m 0 min 0 min 86 W/m 22,5 km/h (4 Bft) 93,48 %
09.11.2022 15:02 14,9 C 14,4 C 10,6 C 73 % 1010,4 hPa 0,0 l/m 0 min 0 min 97 W/m 16,1 km/h (3 Bft) 93,62 %
09.11.2022 15:04 14,9 C 14,4 C 10,6 C 73 % 1010,5 hPa 0,0 l/m 0 min 0 min 89 W/m 19,3 km/h (3 Bft) 93,88 %
09.11.2022 15:06 14,9 C 14,4 C 10,6 C 74 % 1010,5 hPa 0,0 l/m 0 min 0 min 65 W/m 16,1 km/h (3 Bft) 95,74 %
09.11.2022 15:08 14,9 C 14,4 C 10,6 C 74 % 1010,5 hPa 0,0 l/m 0 min 0 min 49 W/m 16,1 km/h (3 Bft) 97,87 %
09.11.2022 15:10 14,8 C 13,9 C 10,6 C 74 % 1010,5 hPa 0,0 l/m 0 min 0 min 42 W/m 16,1 km/h (3 Bft) 95,74 %
09.11.2022 15:12 14,8 C 13,9 C 10,6 C 74 % 1010,6 hPa 0,0 l/m 0 min 0 min 30 W/m 25,7 km/h (4 Bft) 95,74 %
09.11.2022 15:14 14,8 C 13,9 C 10,0 C 74 % 1010,6 hPa 0,0 l/m 0 min 0 min 30 W/m 25,7 km/h (4 Bft) 95,65 %
09.11.2022 15:16 14,7 C 13,9 C 10,0 C 74 % 1010,7 hPa 0,0 l/m 0 min 0 min 31 W/m 22,5 km/h (4 Bft) 95,74 %
09.11.2022 15:18 14,7 C 13,9 C 10,0 C 74 % 1010,6 hPa 0,0 l/m 0 min 0 min 73 W/m 32,2 km/h (5 Bft) 97,87 %
09.11.2022 15:20 14,7 C 13,9 C 10,0 C 74 % 1010,6 hPa 0,0 l/m 2 min 0 min 98 W/m 29,0 km/h (5 Bft) 97,87 %
09.11.2022 15:22 14,6 C 13,9 C 10,0 C 74 % 1010,7 hPa 0,0 l/m 0 min 0 min 70 W/m 38,6 km/h (5 Bft) 95,74 %
09.11.2022 15:24 14,6 C 13,9 C 10,0 C 74 % 1010,8 hPa 0,0 l/m 0 min 0 min 71 W/m 32,2 km/h (5 Bft) 97,87 %
09.11.2022 15:26 14,6 C 13,9 C 10,0 C 75 % 1010,8 hPa 0,0 l/m 0 min 0 min 77 W/m 19,3 km/h (3 Bft) 97,83 %
09.11.2022 15:28 14,5 C 13,9 C 10,0 C 75 % 1010,9 hPa 0,0 l/m 0 min 0 min 87 W/m 19,3 km/h (3 Bft) 97,87 %
09.11.2022 15:30 14,5 C 13,9 C 10,0 C 75 % 1010,8 hPa 0,0 l/m 0 min 0 min 83 W/m 22,5 km/h (4 Bft) 97,87 %
09.11.2022 15:32 14,5 C 13,9 C 10,0 C 75 % 1010,9 hPa 0,0 l/m 0 min 0 min 78 W/m 19,3 km/h (3 Bft) 97,87 %
09.11.2022 15:34 14,4 C 13,9 C 10,0 C 75 % 1010,9 hPa 0,0 l/m 2 min 0 min 89 W/m 25,7 km/h (4 Bft) 97,87 %
09.11.2022 15:36 14,4 C 13,9 C 10,0 C 75 % 1011,0 hPa 0,0 l/m 0 min 0 min 80 W/m 12,9 km/h (3 Bft) 93,48 %
09.11.2022 15:38 14,4 C 13,9 C 10,0 C 76 % 1011,0 hPa 0,0 l/m 0 min 0 min 62 W/m 19,3 km/h (3 Bft) 97,87 %
09.11.2022 15:40 14,3 C 13,9 C 10,0 C 76 % 1011,0 hPa 0,0 l/m 0 min 0 min 58 W/m 19,3 km/h (3 Bft) 100,00 %
09.11.2022 15:42 14,3 C 13,9 C 10,0 C 76 % 1011,0 hPa 0,0 l/m 0 min 0 min 54 W/m 19,3 km/h (3 Bft) 100,00 %
09.11.2022 15:44 14,3 C 13,9 C 10,0 C 76 % 1011,0 hPa 0,0 l/m 0 min 0 min 46 W/m 19,3 km/h (3 Bft) 100,00 %
09.11.2022 15:46 14,3 C 13,3 C 10,0 C 77 % 1011,0 hPa 0,0 l/m 0 min 0 min 39 W/m 16,1 km/h (3 Bft) 100,00 %
09.11.2022 15:48 14,3 C 13,3 C 9,4 C 77 % 1011,0 hPa 0,0 l/m 0 min 0 min 32 W/m 16,1 km/h (3 Bft) 100,00 %
09.11.2022 15:50 14,3 C 13,3 C 9,4 C 77 % 1011,1 hPa 0,0 l/m 0 min 0 min 28 W/m 25,7 km/h (4 Bft) 100,00 %
09.11.2022 15:52 14,2 C 13,3 C 9,4 C 77 % 1011,1 hPa 0,0 l/m 0 min 0 min 28 W/m 19,3 km/h (3 Bft) 100,00 %
09.11.2022 15:54 14,2 C 13,3 C 9,4 C 77 % 1011,1 hPa 0,0 l/m 0 min 0 min 27 W/m 16,1 km/h (3 Bft) 100,00 %
09.11.2022 15:56 14,1 C 13,3 C 9,4 C 77 % 1011,2 hPa 0,0 l/m 0 min 0 min 25 W/m 12,9 km/h (3 Bft) 97,87 %
09.11.2022 15:58 14,1 C 13,3 C 9,4 C 78 % 1011,2 hPa 0,0 l/m 0 min 0 min 26 W/m 9,7 km/h (2 Bft) 97,62 %
09.11.2022 16:00 14,1 C 13,3 C 9,4 C 78 % 1011,2 hPa 0,0 l/m 0 min 0 min 26 W/m 16,1 km/h (3 Bft) 97,83 %
09.11.2022 16:02 14,0 C 13,3 C 9,4 C 78 % 1011,2 hPa 0,0 l/m 0 min 0 min 25 W/m 22,5 km/h (4 Bft) 100,00 %
09.11.2022 16:04 14,0 C 13,3 C 9,4 C 79 % 1011,3 hPa 0,0 l/m 0 min 0 min 25 W/m 16,1 km/h (3 Bft) 100,00 %
09.11.2022 16:06 13,9 C 13,3 C 9,4 C 78 % 1011,4 hPa 0,0 l/m 0 min 0 min 36 W/m 16,1 km/h (3 Bft) 97,87 %
09.11.2022 16:08 13,9 C 13,3 C 9,4 C 78 % 1011,3 hPa 0,0 l/m 0 min 0 min 42 W/m 16,1 km/h (3 Bft) 96,00 %
09.11.2022 16:10 13,9 C 13,3 C 9,4 C 78 % 1011,5 hPa 0,0 l/m 0 min 0 min 42 W/m 19,3 km/h (3 Bft) 100,00 %
09.11.2022 16:16 13,8 C 12,8 C 9,4 C 78 % 1011,4 hPa 0,0 l/m 0 min 0 min 25 W/m 6,4 km/h (2 Bft) 100,00 %
09.11.2022 16:18 13,8 C 12,8 C 9,4 C 78 % 1011,4 hPa 0,0 l/m 0 min 0 min 23 W/m 12,9 km/h (3 Bft) 97,73 %
09.11.2022 16:20 13,7 C 12,8 C 9,4 C 78 % 1011,5 hPa 0,0 l/m 0 min 0 min 28 W/m 6,4 km/h (2 Bft) 98,11 %
09.11.2022 16:22 13,7 C 12,8 C 9,4 C 79 % 1011,5 hPa 0,0 l/m 0 min 0 min 29 W/m 9,7 km/h (2 Bft) 97,87 %
09.11.2022 16:24 13,7 C 12,8 C 9,4 C 79 % 1011,4 hPa 0,0 l/m 0 min 0 min 25 W/m 9,7 km/h (2 Bft) 97,83 %
09.11.2022 16:26 13,7 C 12,8 C 8,9 C 79 % 1011,5 hPa 0,0 l/m 0 min 0 min 21 W/m 6,4 km/h (2 Bft) 97,87 %
09.11.2022 16:28 13,6 C 12,8 C 8,9 C 79 % 1011,5 hPa 0,0 l/m 0 min 0 min 19 W/m 12,9 km/h (3 Bft) 97,87 %
09.11.2022 16:30 13,6 C 12,8 C 8,9 C 79 % 1011,5 hPa 0,0 l/m 0 min 0 min 19 W/m 19,3 km/h (3 Bft) 97,87 %
09.11.2022 16:32 13,6 C 12,8 C 8,9 C 80 % 1011,5 hPa 0,0 l/m 0 min 0 min 19 W/m 6,4 km/h (2 Bft) 97,87 %
09.11.2022 16:34 13,6 C 12,8 C 8,9 C 80 % 1011,6 hPa 0,0 l/m 2 min 0 min 23 W/m 12,9 km/h (3 Bft) 97,83 %
09.11.2022 16:36 13,6 C 12,8 C 8,9 C 81 % 1011,6 hPa 0,0 l/m 2 min 0 min 26 W/m 16,1 km/h (3 Bft) 95,74 %
09.11.2022 16:38 13,5 C 12,8 C 8,9 C 81 % 1011,6 hPa 0,0 l/m 2 min 0 min 20 W/m 19,3 km/h (3 Bft) 97,87 %
09.11.2022 16:40 13,5 C 12,8 C 8,9 C 81 % 1011,6 hPa 0,0 l/m 0 min 0 min 13 W/m 19,3 km/h (3 Bft) 95,74 %
09.11.2022 16:42 13,4 C 12,8 C 8,9 C 81 % 1011,7 hPa 0,0 l/m 0 min 0 min 12 W/m 16,1 km/h (3 Bft) 97,87 %
09.11.2022 16:44 13,4 C 12,2 C 8,9 C 81 % 1011,6 hPa 0,0 l/m 0 min 0 min 11 W/m 19,3 km/h (3 Bft) 97,87 %
09.11.2022 16:46 13,4 C 12,2 C 8,9 C 81 % 1011,6 hPa 0,0 l/m 0 min 0 min 9 W/m 16,1 km/h (3 Bft) 95,74 %
09.11.2022 16:48 13,3 C 12,2 C 8,9 C 81 % 1011,7 hPa 0,0 l/m 0 min 0 min 8 W/m 19,3 km/h (3 Bft) 95,65 %
09.11.2022 16:50 13,3 C 12,2 C 8,9 C 82 % 1011,7 hPa 0,0 l/m 0 min 0 min 6 W/m 9,7 km/h (2 Bft) 100,00 %
09.11.2022 16:52 13,3 C 12,2 C 8,9 C 82 % 1011,8 hPa 0,0 l/m 0 min 0 min 5 W/m 12,9 km/h (3 Bft) 100,00 %
09.11.2022 16:54 13,3 C 12,2 C 8,9 C 82 % 1011,8 hPa 0,0 l/m 0 min 0 min 5 W/m 6,4 km/h (2 Bft) 100,00 %
09.11.2022 16:56 13,2 C 12,2 C 8,9 C 82 % 1011,8 hPa 0,0 l/m 0 min 0 min 5 W/m 6,4 km/h (2 Bft) 100,00 %
09.11.2022 16:58 13,2 C 12,2 C 8,9 C 82 % 1011,7 hPa 0,0 l/m 0 min 0 min 5 W/m 19,3 km/h (3 Bft) 97,83 %
09.11.2022 17:00 13,2 C 12,2 C 8,3 C 82 % 1011,7 hPa 0,0 l/m 0 min 0 min 5 W/m 16,1 km/h (3 Bft) 100,00 %
09.11.2022 17:02 13,1 C 12,2 C 8,3 C 82 % 1011,7 hPa 0,0 l/m 0 min 0 min 5 W/m 16,1 km/h (3 Bft) 100,00 %
09.11.2022 17:04 13,1 C 12,2 C 8,3 C 83 % 1011,7 hPa 0,0 l/m 0 min 0 min 5 W/m 12,9 km/h (3 Bft) 97,78 %
09.11.2022 17:06 13,1 C 12,2 C 8,3 C 83 % 1011,8 hPa 0,0 l/m 0 min 0 min 0 W/m 16,1 km/h (3 Bft) 97,87 %
09.11.2022 17:08 13,1 C 12,2 C 8,3 C 83 % 1011,9 hPa 0,0 l/m 0 min 0 min 0 W/m 9,7 km/h (2 Bft) 97,83 %
09.11.2022 17:10 13,0 C 12,2 C 8,3 C 83 % 1011,9 hPa 0,0 l/m 0 min 0 min 0 W/m 16,1 km/h (3 Bft) 95,74 %
09.11.2022 17:12 13,0 C 12,2 C 8,3 C 83 % 1011,9 hPa 0,0 l/m 0 min 0 min 0 W/m 16,1 km/h (3 Bft) 97,87 %
09.11.2022 17:14 13,0 C 12,2 C 8,3 C 83 % 1012,0 hPa 0,0 l/m 0 min 0 min 0 W/m 12,9 km/h (3 Bft) 97,87 %
09.11.2022 17:16 12,9 C 11,7 C 8,3 C 83 % 1012,0 hPa 0,0 l/m 0 min 0 min 0 W/m 19,3 km/h (3 Bft) 93,62 %
09.11.2022 17:18 12,9 C 12,2 C 8,3 C 83 % 1012,0 hPa 0,0 l/m 0 min 0 min 0 W/m 12,9 km/h (3 Bft) 97,87 %
09.11.2022 17:20 12,9 C 11,7 C 8,3 C 83 % 1012,0 hPa 0,0 l/m 0 min 0 min 0 W/m 19,3 km/h (3 Bft) 97,83 %
09.11.2022 17:22 12,9 C 11,7 C 8,3 C 83 % 1012,1 hPa 0,0 l/m 0 min 0 min 0 W/m 9,7 km/h (2 Bft) 93,62 %
09.11.2022 17:24 12,8 C 11,7 C 8,3 C 83 % 1012,1 hPa 0,0 l/m 0 min 0 min 0 W/m 12,9 km/h (3 Bft) 97,87 %
09.11.2022 17:26 12,8 C 11,7 C 8,3 C 83 % 1012,1 hPa 0,0 l/m 0 min 0 min 0 W/m 6,4 km/h (2 Bft) 93,62 %
09.11.2022 17:28 12,8 C 11,7 C 8,3 C 84 % 1012,1 hPa 0,0 l/m 0 min 0 min 0 W/m 19,3 km/h (3 Bft) 93,62 %
09.11.2022 17:30 12,8 C 11,7 C 8,3 C 84 % 1012,2 hPa 0,0 l/m 0 min 0 min 0 W/m 16,1 km/h (3 Bft) 97,96 %
09.11.2022 17:32 12,7 C 11,7 C 8,3 C 84 % 1012,2 hPa 0,0 l/m 0 min 0 min 0 W/m 19,3 km/h (3 Bft) 95,74 %
09.11.2022 17:34 12,7 C 11,7 C 8,3 C 84 % 1012,3 hPa 0,0 l/m 0 min 0 min 0 W/m 16,1 km/h (3 Bft) 95,65 %
09.11.2022 17:36 12,7 C 11,7 C 8,3 C 84 % 1012,3 hPa 0,0 l/m 0 min 0 min 0 W/m 16,1 km/h (3 Bft) 93,62 %
09.11.2022 17:38 12,7 C 11,7 C 8,3 C 84 % 1012,3 hPa 0,0 l/m 0 min 0 min 0 W/m 19,3 km/h (3 Bft) 95,74 %
09.11.2022 17:40 12,7 C 11,7 C 8,3 C 84 % 1012,4 hPa 0,0 l/m 0 min 0 min 0 W/m 16,1 km/h (3 Bft) 93,62 %
09.11.2022 17:42 12,7 C 11,7 C 8,3 C 84 % 1012,4 hPa 0,0 l/m 0 min 0 min 0 W/m 22,5 km/h (4 Bft) 95,74 %
09.11.2022 17:44 12,7 C 11,7 C 8,3 C 84 % 1012,4 hPa 0,0 l/m 0 min 0 min 0 W/m 9,7 km/h (2 Bft) 95,74 %
09.11.2022 17:46 12,6 C 11,7 C 8,3 C 84 % 1012,4 hPa 0,0 l/m 0 min 0 min 0 W/m 12,9 km/h (3 Bft) 91,30 %
09.11.2022 17:48 12,6 C 11,7 C 8,3 C 84 % 1012,4 hPa 0,0 l/m 0 min 0 min 0 W/m 12,9 km/h (3 Bft) 95,74 %
09.11.2022 17:50 12,6 C 11,7 C 8,3 C 84 % 1012,4 hPa 0,0 l/m 0 min 0 min 0 W/m 25,7 km/h (4 Bft) 93,62 %
09.11.2022 17:52 12,6 C 11,7 C 8,3 C 84 % 1012,5 hPa 0,0 l/m 0 min 0 min 0 W/m 22,5 km/h (4 Bft) 93,62 %
09.11.2022 17:54 12,6 C 11,7 C 8,3 C 84 % 1012,5 hPa 0,0 l/m 0 min 0 min 0 W/m 22,5 km/h (4 Bft) 95,74 %
09.11.2022 17:56 12,6 C 11,7 C 8,3 C 84 % 1012,5 hPa 0,0 l/m 0 min 0 min 0 W/m 19,3 km/h (3 Bft) 95,74 %
09.11.2022 17:58 12,6 C 11,7 C 8,3 C 84 % 1012,5 hPa 0,0 l/m 0 min 0 min 0 W/m 19,3 km/h (3 Bft) 97,83 %
09.11.2022 18:00 12,6 C 11,7 C 8,3 C 84 % 1012,6 hPa 0,0 l/m 0 min 0 min 0 W/m 22,5 km/h (4 Bft) 94,44 %
09.11.2022 18:02 12,6 C 11,7 C 8,3 C 84 % 1012,6 hPa 0,0 l/m 0 min 0 min 0 W/m 19,3 km/h (3 Bft) 95,74 %
09.11.2022 18:04 12,6 C 11,7 C 8,3 C 84 % 1012,6 hPa 0,0 l/m 0 min 0 min 0 W/m 19,3 km/h (3 Bft) 91,84 %
09.11.2022 18:08 12,6 C 11,7 C 8,3 C 84 % 1012,7 hPa 0,0 l/m 0 min 0 min 0 W/m 22,5 km/h (4 Bft) 96,04 %
09.11.2022 18:10 12,6 C 11,7 C 8,3 C 84 % 1012,7 hPa 0,0 l/m 0 min 0 min 0 W/m 19,3 km/h (3 Bft) 95,65 %
09.11.2022 18:12 12,6 C 11,7 C 8,3 C 83 % 1012,8 hPa 0,0 l/m 0 min 0 min 0 W/m 25,7 km/h (4 Bft) 91,49 %
09.11.2022 18:14 12,6 C 11,7 C 8,3 C 83 % 1012,8 hPa 0,0 l/m 0 min 0 min 0 W/m 19,3 km/h (3 Bft) 93,62 %
09.11.2022 18:16 12,6 C 11,7 C 8,3 C 83 % 1012,8 hPa 0,0 l/m 0 min 0 min 0 W/m 19,3 km/h (3 Bft) 95,74 %
09.11.2022 18:18 12,6 C 11,7 C 8,3 C 83 % 1012,9 hPa 0,0 l/m 0 min 0 min 0 W/m 12,9 km/h (3 Bft) 95,74 %
09.11.2022 18:20 12,6 C 11,7 C 8,3 C 83 % 1012,9 hPa 0,0 l/m 0 min 0 min 0 W/m 32,2 km/h (5 Bft) 95,74 %
09.11.2022 18:22 12,6 C 11,7 C 8,3 C 83 % 1012,9 hPa 0,0 l/m 0 min 0 min 0 W/m 22,5 km/h (4 Bft) 95,65 %
09.11.2022 18:24 12,6 C 11,7 C 8,3 C 83 % 1013,0 hPa 0,0 l/m 0 min 0 min 0 W/m 19,3 km/h (3 Bft) 97,87 %
09.11.2022 18:26 12,6 C 11,7 C 8,3 C 83 % 1013,0 hPa 0,0 l/m 0 min 0 min 0 W/m 22,5 km/h (4 Bft) 97,87 %
09.11.2022 18:28 12,6 C 11,7 C 8,3 C 82 % 1013,0 hPa 0,0 l/m 0 min 0 min 0 W/m 22,5 km/h (4 Bft) 97,87 %
09.11.2022 18:30 12,6 C 11,7 C 8,3 C 82 % 1013,0 hPa 0,0 l/m 0 min 0 min 0 W/m 12,9 km/h (3 Bft) 97,87 %
09.11.2022 18:32 12,6 C 11,7 C 8,3 C 82 % 1013,0 hPa 0,0 l/m 0 min 0 min 0 W/m 19,3 km/h (3 Bft) 95,74 %
09.11.2022 18:34 12,6 C 11,7 C 8,3 C 82 % 1013,1 hPa 0,0 l/m 0 min 0 min 0 W/m 19,3 km/h (3 Bft) 95,65 %
09.11.2022 18:36 12,6 C 11,7 C 8,3 C 82 % 1013,1 hPa 0,0 l/m 0 min 0 min 0 W/m 22,5 km/h (4 Bft) 97,87 %
09.11.2022 18:38 12,6 C 11,7 C 8,3 C 82 % 1013,2 hPa 0,0 l/m 0 min 0 min 0 W/m 12,9 km/h (3 Bft) 97,87 %
09.11.2022 18:40 12,6 C 11,7 C 8,3 C 82 % 1013,2 hPa 0,0 l/m 0 min 0 min 0 W/m 16,1 km/h (3 Bft) 97,87 %
09.11.2022 18:42 12,6 C 11,7 C 8,3 C 82 % 1013,3 hPa 0,0 l/m 0 min 0 min 0 W/m 19,3 km/h (3 Bft) 97,87 %
09.11.2022 18:44 12,5 C 11,7 C 7,8 C 82 % 1013,3 hPa 0,0 l/m 0 min 0 min 0 W/m 16,1 km/h (3 Bft) 100,00 %
09.11.2022 18:46 12,5 C 11,7 C 7,8 C 82 % 1013,3 hPa 0,0 l/m 0 min 0 min 0 W/m 12,9 km/h (3 Bft) 100,00 %
09.11.2022 18:48 12,4 C 11,7 C 7,8 C 82 % 1013,4 hPa 0,0 l/m 0 min 0 min 0 W/m 22,5 km/h (4 Bft) 97,87 %
09.11.2022 18:50 12,4 C 11,7 C 7,8 C 82 % 1013,4 hPa 0,0 l/m 0 min 0 min 0 W/m 12,9 km/h (3 Bft) 100,00 %
09.11.2022 18:52 12,4 C 11,7 C 7,8 C 82 % 1013,5 hPa 0,0 l/m 0 min 0 min 0 W/m 19,3 km/h (3 Bft) 100,00 %
09.11.2022 18:54 12,4 C 11,7 C 7,8 C 82 % 1013,4 hPa 0,0 l/m 0 min 0 min 0 W/m 12,9 km/h (3 Bft) 100,00 %
09.11.2022 18:56 12,4 C 11,7 C 7,8 C 82 % 1013,5 hPa 0,0 l/m 0 min 0 min 0 W/m 22,5 km/h (4 Bft) 100,00 %
09.11.2022 18:58 12,3 C 11,7 C 7,8 C 83 % 1013,5 hPa 0,0 l/m 0 min 0 min 0 W/m 22,5 km/h (4 Bft) 100,00 %
09.11.2022 19:00 12,3 C 11,1 C 7,8 C 83 % 1013,6 hPa 0,0 l/m 0 min 0 min 0 W/m 12,9 km/h (3 Bft) 97,87 %
09.11.2022 19:02 12,3 C 11,1 C 7,8 C 83 % 1013,6 hPa 0,0 l/m 0 min 0 min 0 W/m 22,5 km/h (4 Bft) 97,87 %
09.11.2022 19:04 12,2 C 11,1 C 7,8 C 83 % 1013,6 hPa 0,0 l/m 0 min 0 min 0 W/m 29,0 km/h (5 Bft) 97,87 %
09.11.2022 19:06 12,2 C 11,1 C 7,8 C 83 % 1013,6 hPa 0,0 l/m 0 min 0 min 0 W/m 12,9 km/h (3 Bft) 100,00 %
09.11.2022 19:08 12,2 C 11,1 C 7,8 C 83 % 1013,7 hPa 0,0 l/m 0 min 0 min 0 W/m 12,9 km/h (3 Bft) 100,00 %
09.11.2022 19:10 12,1 C 11,1 C 7,8 C 83 % 1013,7 hPa 0,0 l/m 0 min 0 min 0 W/m 16,1 km/h (3 Bft) 100,00 %
09.11.2022 19:12 12,1 C 11,1 C 7,8 C 83 % 1013,7 hPa 0,0 l/m 0 min 0 min 0 W/m 12,9 km/h (3 Bft) 100,00 %
09.11.2022 19:14 12,1 C 11,1 C 7,8 C 83 % 1013,8 hPa 0,0 l/m 0 min 0 min 0 W/m 16,1 km/h (3 Bft) 97,87 %
09.11.2022 19:16 12,1 C 11,1 C 7,8 C 83 % 1013,8 hPa 0,0 l/m 0 min 0 min 0 W/m 12,9 km/h (3 Bft) 100,00 %
09.11.2022 19:18 12,1 C 11,1 C 7,8 C 83 % 1013,9 hPa 0,0 l/m 0 min 0 min 0 W/m 12,9 km/h (3 Bft) 95,74 %
09.11.2022 19:20 12,1 C 11,1 C 7,8 C 83 % 1013,9 hPa 0,0 l/m 0 min 0 min 0 W/m 12,9 km/h (3 Bft) 100,00 %
09.11.2022 19:22 12,0 C 11,1 C 7,8 C 84 % 1013,9 hPa 0,0 l/m 0 min 0 min 0 W/m 6,4 km/h (2 Bft) 97,83 %
09.11.2022 19:24 12,0 C 11,1 C 7,8 C 83 % 1014,0 hPa 0,0 l/m 0 min 0 min 0 W/m 9,7 km/h (2 Bft) 100,00 %
09.11.2022 19:26 11,9 C 11,1 C 7,8 C 84 % 1014,0 hPa 0,0 l/m 0 min 0 min 0 W/m 9,7 km/h (2 Bft) 97,87 %
09.11.2022 19:28 11,9 C 11,1 C 7,8 C 84 % 1014,0 hPa 0,0 l/m 0 min 0 min 0 W/m 6,4 km/h (2 Bft) 100,00 %
09.11.2022 19:30 11,9 C 11,1 C 7,8 C 84 % 1014,1 hPa 0,0 l/m 0 min 0 min 0 W/m 12,9 km/h (3 Bft) 100,00 %
09.11.2022 19:32 11,9 C 11,1 C 7,8 C 84 % 1014,1 hPa 0,0 l/m 0 min 0 min 0 W/m 12,9 km/h (3 Bft) 100,00 %
09.11.2022 19:34 11,9 C 11,1 C 7,8 C 84 % 1014,2 hPa 0,0 l/m 0 min 0 min 0 W/m 19,3 km/h (3 Bft) 100,00 %
09.11.2022 19:36 11,9 C 11,1 C 7,8 C 85 % 1014,3 hPa 0,0 l/m 0 min 0 min 0 W/m 16,1 km/h (3 Bft) 95,74 %
09.11.2022 19:38 11,9 C 11,1 C 7,8 C 85 % 1014,2 hPa 0,0 l/m 0 min 0 min 0 W/m 16,1 km/h (3 Bft) 100,00 %
09.11.2022 19:40 11,9 C 11,1 C 7,8 C 85 % 1014,2 hPa 0,0 l/m 0 min 0 min 0 W/m 12,9 km/h (3 Bft) 97,87 %
09.11.2022 19:42 11,9 C 11,1 C 7,8 C 85 % 1014,2 hPa 0,0 l/m 0 min 0 min 0 W/m 16,1 km/h (3 Bft) 97,87 %
09.11.2022 19:44 11,9 C 11,1 C 7,8 C 85 % 1014,3 hPa 0,0 l/m 0 min 0 min 0 W/m 19,3 km/h (3 Bft) 100,00 %
09.11.2022 19:46 11,9 C 11,1 C 7,8 C 85 % 1014,3 hPa 0,0 l/m 0 min 0 min 0 W/m 16,1 km/h (3 Bft) 100,00 %
09.11.2022 19:48 11,8 C 11,1 C 7,8 C 85 % 1014,2 hPa 0,0 l/m 0 min 0 min 0 W/m 16,1 km/h (3 Bft) 100,00 %
09.11.2022 19:50 11,8 C 11,1 C 7,2 C 85 % 1014,3 hPa 0,0 l/m 0 min 0 min 0 W/m 16,1 km/h (3 Bft) 100,00 %
09.11.2022 19:52 11,8 C 11,1 C 7,2 C 85 % 1014,3 hPa 0,0 l/m 0 min 0 min 0 W/m 22,5 km/h (4 Bft) 100,00 %
09.11.2022 19:54 11,8 C 10,6 C 7,2 C 85 % 1014,4 hPa 0,0 l/m 0 min 0 min 0 W/m 19,3 km/h (3 Bft) 97,87 %
09.11.2022 19:56 11,7 C 10,6 C 7,2 C 85 % 1014,4 hPa 0,0 l/m 0 min 0 min 0 W/m 25,7 km/h (4 Bft) 100,00 %
09.11.2022 19:58 11,7 C 10,6 C 7,2 C 85 % 1014,4 hPa 0,0 l/m 0 min 0 min 0 W/m 29,0 km/h (5 Bft) 97,83 %
09.11.2022 20:00 11,7 C 11,1 C 7,2 C 85 % 1014,5 hPa 0,0 l/m 0 min 0 min 0 W/m 25,7 km/h (4 Bft) 100,00 %
09.11.2022 20:02 11,7 C 10,6 C 7,2 C 85 % 1014,5 hPa 0,0 l/m 0 min 0 min 0 W/m 19,3 km/h (3 Bft) 95,74 %
09.11.2022 20:04 11,7 C 10,6 C 7,2 C 85 % 1014,5 hPa 0,0 l/m 0 min 0 min 0 W/m 22,5 km/h (4 Bft) 95,74 %
09.11.2022 20:06 11,6 C 10,6 C 7,2 C 85 % 1014,5 hPa 0,0 l/m 0 min 0 min 0 W/m 19,3 km/h (3 Bft) 93,62 %
09.11.2022 20:08 11,6 C 10,6 C 7,2 C 85 % 1014,5 hPa 0,0 l/m 0 min 0 min 0 W/m 16,1 km/h (3 Bft) 95,65 %
09.11.2022 20:10 11,6 C 10,6 C 7,2 C 85 % 1014,5 hPa 0,0 l/m 0 min 0 min 0 W/m 25,7 km/h (4 Bft) 93,62 %
09.11.2022 20:12 11,6 C 10,6 C 7,2 C 85 % 1014,6 hPa 0,0 l/m 0 min 0 min 0 W/m 22,5 km/h (4 Bft) 93,62 %
09.11.2022 20:14 11,6 C 10,6 C 7,2 C 85 % 1014,5 hPa 0,0 l/m 0 min 0 min 0 W/m 16,1 km/h (3 Bft) 91,49 %
09.11.2022 20:16 11,6 C 10,6 C 7,2 C 85 % 1014,6 hPa 0,0 l/m 0 min 0 min 0 W/m 19,3 km/h (3 Bft) 93,62 %
09.11.2022 20:18 11,6 C 10,6 C 7,2 C 85 % 1014,7 hPa 0,0 l/m 0 min 0 min 0 W/m 16,1 km/h (3 Bft) 93,62 %
09.11.2022 20:20 11,6 C 10,6 C 7,2 C 85 % 1014,7 hPa 0,0 l/m 0 min 0 min 0 W/m 16,1 km/h (3 Bft) 91,30 %
09.11.2022 20:22 11,6 C 10,6 C 7,2 C 85 % 1014,7 hPa 0,0 l/m 0 min 0 min 0 W/m 12,9 km/h (3 Bft) 93,62 %
09.11.2022 20:24 11,5 C 10,6 C 7,2 C 85 % 1014,7 hPa 0,0 l/m 0 min 0 min 0 W/m 12,9 km/h (3 Bft) 93,62 %
09.11.2022 20:26 11,5 C 10,6 C 7,2 C 85 % 1014,7 hPa 0,0 l/m 0 min 0 min 0 W/m 16,1 km/h (3 Bft) 93,62 %
09.11.2022 20:28 11,5 C 10,6 C 7,2 C 85 % 1014,7 hPa 0,0 l/m 0 min 0 min 0 W/m 12,9 km/h (3 Bft) 91,49 %
09.11.2022 20:30 11,4 C 10,6 C 7,2 C 85 % 1014,8 hPa 0,0 l/m 0 min 0 min 0 W/m 25,7 km/h (4 Bft) 93,62 %
09.11.2022 20:32 11,4 C 10,6 C 7,2 C 85 % 1014,8 hPa 0,0 l/m 0 min 0 min 0 W/m 6,4 km/h (2 Bft) 93,48 %
09.11.2022 20:34 11,4 C 10,6 C 7,2 C 85 % 1014,8 hPa 0,0 l/m 0 min 0 min 0 W/m 9,7 km/h (2 Bft) 93,62 %
09.11.2022 20:36 11,4 C 10,6 C 7,2 C 85 % 1014,9 hPa 0,0 l/m 0 min 0 min 0 W/m 9,7 km/h (2 Bft) 29,03 %
09.11.2022 20:38 11,4 C 10,6 C 7,2 C 86 % 1014,9 hPa 0,0 l/m 0 min 0 min 0 W/m 12,9 km/h (3 Bft) 95,74 %
09.11.2022 20:40 11,3 C 10,6 C 7,2 C 86 % 1014,9 hPa 0,0 l/m 0 min 0 min 0 W/m 16,1 km/h (3 Bft) 95,74 %
09.11.2022 20:42 11,3 C 10,6 C 7,2 C 86 % 1014,9 hPa 0,0 l/m 0 min 0 min 0 W/m 12,9 km/h (3 Bft) 93,62 %
09.11.2022 20:44 11,3 C 10,6 C 7,2 C 86 % 1014,9 hPa 0,0 l/m 0 min 0 min 0 W/m 6,4 km/h (2 Bft) 93,48 %
09.11.2022 20:46 11,3 C 10,6 C 7,2 C 86 % 1014,9 hPa 0,0 l/m 0 min 0 min 0 W/m 6,4 km/h (2 Bft) 95,74 %
09.11.2022 20:48 11,3 C 10,6 C 7,2 C 86 % 1014,9 hPa 0,0 l/m 0 min 0 min 0 W/m 6,4 km/h (2 Bft) 95,74 %
09.11.2022 20:50 11,3 C 10,6 C 7,2 C 86 % 1014,9 hPa 0,0 l/m 0 min 0 min 0 W/m 6,4 km/h (2 Bft) 95,74 %
09.11.2022 20:52 11,3 C 10,6 C 7,2 C 86 % 1015,0 hPa 0,0 l/m 0 min 0 min 0 W/m 16,1 km/h (3 Bft) 95,74 %
09.11.2022 20:54 11,3 C 10,6 C 7,2 C 86 % 1015,0 hPa 0,0 l/m 0 min 0 min 0 W/m 16,1 km/h (3 Bft) 93,62 %
09.11.2022 20:56 11,3 C 10,6 C 7,2 C 86 % 1015,0 hPa 0,0 l/m 0 min 0 min 0 W/m 19,3 km/h (3 Bft) 95,65 %
09.11.2022 20:58 11,3 C 10,6 C 7,2 C 86 % 1015,0 hPa 0,0 l/m 0 min 0 min 0 W/m 12,9 km/h (3 Bft) 97,87 %
09.11.2022 21:00 11,3 C 10,6 C 7,2 C 86 % 1015,1 hPa 0,0 l/m 0 min 0 min 0 W/m 16,1 km/h (3 Bft) 100,00 %
09.11.2022 21:02 11,3 C 10,6 C 7,2 C 86 % 1015,2 hPa 0,0 l/m 0 min 0 min 0 W/m 22,5 km/h (4 Bft) 95,74 %
09.11.2022 21:04 11,3 C 10,6 C 7,2 C 86 % 1015,2 hPa 0,0 l/m 0 min 0 min 0 W/m 16,1 km/h (3 Bft) 100,00 %
09.11.2022 21:06 11,3 C 10,6 C 7,2 C 86 % 1015,3 hPa 0,0 l/m 0 min 0 min 0 W/m 16,1 km/h (3 Bft) 97,87 %
09.11.2022 21:08 11,2 C 10,6 C 7,2 C 86 % 1015,3 hPa 0,0 l/m 0 min 0 min 0 W/m 12,9 km/h (3 Bft) 100,00 %
09.11.2022 21:10 11,2 C 10,6 C 7,2 C 86 % 1015,3 hPa 0,0 l/m 0 min 0 min 0 W/m 16,1 km/h (3 Bft) 97,87 %
09.11.2022 21:12 11,2 C 10,6 C 7,2 C 86 % 1015,3 hPa 0,0 l/m 0 min 0 min 0 W/m 19,3 km/h (3 Bft) 97,87 %
09.11.2022 21:14 11,2 C 10,6 C 7,2 C 86 % 1015,4 hPa 0,0 l/m 0 min 0 min 0 W/m 16,1 km/h (3 Bft) 100,00 %
09.11.2022 21:16 11,2 C 10,6 C 7,2 C 86 % 1015,4 hPa 0,0 l/m 0 min 0 min 0 W/m 6,4 km/h (2 Bft) 100,00 %
09.11.2022 21:18 11,2 C 10,6 C 6,7 C 86 % 1015,4 hPa 0,0 l/m 0 min 0 min 0 W/m 6,4 km/h (2 Bft) 100,00 %
09.11.2022 21:20 11,2 C 10,6 C 6,7 C 87 % 1015,5 hPa 0,0 l/m 0 min 0 min 0 W/m 12,9 km/h (3 Bft) 100,00 %
09.11.2022 21:22 11,2 C 10,6 C 6,7 C 87 % 1015,6 hPa 0,0 l/m 0 min 0 min 0 W/m 12,9 km/h (3 Bft) 100,00 %
09.11.2022 21:24 11,2 C 10,6 C 6,7 C 87 % 1015,6 hPa 0,0 l/m 0 min 0 min 0 W/m 6,4 km/h (2 Bft) 100,00 %
09.11.2022 21:26 11,1 C 10,0 C 6,7 C 87 % 1015,7 hPa 0,0 l/m 0 min 0 min 0 W/m 12,9 km/h (3 Bft) 97,87 %
09.11.2022 21:28 11,1 C 10,0 C 6,7 C 87 % 1015,7 hPa 0,0 l/m 0 min 0 min 0 W/m 6,4 km/h (2 Bft) 100,00 %
09.11.2022 21:30 11,1 C 10,0 C 6,7 C 87 % 1015,7 hPa 0,0 l/m 0 min 0 min 0 W/m 16,1 km/h (3 Bft) 100,00 %
09.11.2022 21:32 11,1 C 10,0 C 6,7 C 87 % 1015,8 hPa 0,0 l/m 0 min 0 min 0 W/m 6,4 km/h (2 Bft) 100,00 %
09.11.2022 21:34 11,1 C 10,0 C 6,7 C 87 % 1015,9 hPa 0,0 l/m 0 min 0 min 0 W/m 9,7 km/h (2 Bft) 100,00 %
09.11.2022 21:36 11,1 C 10,0 C 6,7 C 87 % 1015,9 hPa 0,0 l/m 0 min 0 min 0 W/m 9,7 km/h (2 Bft) 100,00 %
09.11.2022 21:38 11,1 C 10,0 C 6,7 C 87 % 1015,9 hPa 0,0 l/m 0 min 0 min 0 W/m 6,4 km/h (2 Bft) 100,00 %
09.11.2022 21:40 11,1 C 10,0 C 6,7 C 87 % 1015,9 hPa 0,0 l/m 0 min 0 min 0 W/m 16,1 km/h (3 Bft) 100,00 %
09.11.2022 21:42 11,1 C 10,0 C 6,7 C 87 % 1015,9 hPa 0,0 l/m 0 min 0 min 0 W/m 12,9 km/h (3 Bft) 97,87 %
09.11.2022 21:44 11,1 C 10,0 C 6,7 C 87 % 1015,9 hPa 0,0 l/m 0 min 0 min 0 W/m 12,9 km/h (3 Bft) 100,00 %
09.11.2022 21:46 11,0 C 10,0 C 6,7 C 87 % 1016,1 hPa 0,0 l/m 0 min 0 min 0 W/m 9,7 km/h (2 Bft) 100,00 %
09.11.2022 21:48 11,0 C 10,0 C 6,7 C 87 % 1016,1 hPa 0,0 l/m 0 min 0 min 0 W/m 12,9 km/h (3 Bft) 100,00 %
09.11.2022 21:50 11,0 C 10,0 C 6,7 C 87 % 1016,0 hPa 0,0 l/m 0 min 0 min 0 W/m 22,5 km/h (4 Bft) 100,00 %
09.11.2022 21:52 11,0 C 10,0 C 6,7 C 87 % 1016,1 hPa 0,0 l/m 0 min 0 min 0 W/m 19,3 km/h (3 Bft) 93,62 %
09.11.2022 21:54 11,0 C 10,0 C 6,7 C 87 % 1016,1 hPa 0,0 l/m 0 min 0 min 0 W/m 6,4 km/h (2 Bft) 97,87 %
09.11.2022 21:56 11,0 C 10,0 C 6,7 C 87 % 1016,1 hPa 0,0 l/m 0 min 0 min 0 W/m 16,1 km/h (3 Bft) 95,65 %
09.11.2022 21:58 11,0 C 10,0 C 6,7 C 87 % 1016,2 hPa 0,0 l/m 0 min 0 min 0 W/m 16,1 km/h (3 Bft) 97,87 %
09.11.2022 22:00 11,0 C 10,0 C 6,7 C 87 % 1016,2 hPa 0,0 l/m 0 min 0 min 0 W/m 9,7 km/h (2 Bft) 97,87 %
09.11.2022 22:02 11,0 C 10,0 C 6,7 C 87 % 1016,2 hPa 0,0 l/m 0 min 0 min 0 W/m 12,9 km/h (3 Bft) 97,87 %
09.11.2022 22:04 10,9 C 10,0 C 6,7 C 87 % 1016,3 hPa 0,0 l/m 0 min 0 min 0 W/m 12,9 km/h (3 Bft) 97,87 %
09.11.2022 22:06 10,9 C 10,0 C 6,7 C 87 % 1016,3 hPa 0,0 l/m 0 min 0 min 0 W/m 12,9 km/h (3 Bft) 97,87 %
09.11.2022 22:08 10,9 C 10,0 C 6,7 C 87 % 1016,3 hPa 0,0 l/m 0 min 0 min 0 W/m 9,7 km/h (2 Bft) 97,62 %
09.11.2022 22:10 10,9 C 10,0 C 6,7 C 87 % 1016,3 hPa 0,0 l/m 0 min 0 min 0 W/m 9,7 km/h (2 Bft) 95,65 %
09.11.2022 22:12 10,9 C 10,0 C 6,7 C 87 % 1016,3 hPa 0,0 l/m 0 min 0 min 0 W/m 19,3 km/h (3 Bft) 95,74 %
09.11.2022 22:14 10,9 C 10,0 C 6,7 C 87 % 1016,3 hPa 0,0 l/m 0 min 0 min 0 W/m 12,9 km/h (3 Bft) 97,87 %
09.11.2022 22:16 10,9 C 10,0 C 6,7 C 87 % 1016,3 hPa 0,0 l/m 0 min 0 min 0 W/m 22,5 km/h (4 Bft) 95,74 %
09.11.2022 22:18 10,9 C 10,0 C 6,7 C 87 % 1016,3 hPa 0,0 l/m 0 min 0 min 0 W/m 19,3 km/h (3 Bft) 97,87 %
09.11.2022 22:20 10,9 C 10,0 C 6,7 C 87 % 1016,4 hPa 0,0 l/m 0 min 0 min 0 W/m 16,1 km/h (3 Bft) 97,87 %
09.11.2022 22:22 10,9 C 10,0 C 6,7 C 87 % 1016,4 hPa 0,0 l/m 0 min 0 min 0 W/m 12,9 km/h (3 Bft) 100,00 %
09.11.2022 22:24 10,9 C 10,0 C 6,7 C 87 % 1016,5 hPa 0,0 l/m 0 min 0 min 0 W/m 16,1 km/h (3 Bft) 97,87 %
09.11.2022 22:26 10,9 C 10,0 C 6,7 C 88 % 1016,5 hPa 0,0 l/m 0 min 0 min 0 W/m 16,1 km/h (3 Bft) 100,00 %
09.11.2022 22:28 10,9 C 10,0 C 6,7 C 88 % 1016,5 hPa 0,0 l/m 0 min 0 min 0 W/m 12,9 km/h (3 Bft) 100,00 %
09.11.2022 22:30 10,9 C 10,0 C 6,7 C 88 % 1016,5 hPa 0,0 l/m 0 min 0 min 0 W/m 16,1 km/h (3 Bft) 97,87 %
09.11.2022 22:32 10,9 C 10,0 C 6,7 C 88 % 1016,6 hPa 0,0 l/m 0 min 0 min 0 W/m 12,9 km/h (3 Bft) 100,00 %
09.11.2022 22:34 10,9 C 10,0 C 6,7 C 88 % 1016,6 hPa 0,0 l/m 0 min 0 min 0 W/m 9,7 km/h (2 Bft) 100,00 %
09.11.2022 22:36 10,8 C 10,0 C 6,7 C 88 % 1016,5 hPa 0,0 l/m 0 min 0 min 0 W/m 16,1 km/h (3 Bft) 100,00 %
09.11.2022 22:38 10,8 C 10,0 C 6,7 C 88 % 1016,6 hPa 0,0 l/m 0 min 0 min 0 W/m 16,1 km/h (3 Bft) 100,00 %
09.11.2022 22:40 10,8 C 10,0 C 6,7 C 88 % 1016,6 hPa 0,0 l/m 0 min 0 min 0 W/m 12,9 km/h (3 Bft) 97,87 %
09.11.2022 22:42 10,8 C 10,0 C 6,7 C 88 % 1016,6 hPa 0,0 l/m 0 min 0 min 0 W/m 19,3 km/h (3 Bft) 100,00 %
09.11.2022 22:44 10,8 C 10,0 C 6,7 C 88 % 1016,6 hPa 0,0 l/m 0 min 0 min 0 W/m 12,9 km/h (3 Bft) 100,00 %
09.11.2022 22:46 10,8 C 10,0 C 6,7 C 88 % 1016,6 hPa 0,0 l/m 0 min 0 min 0 W/m 16,1 km/h (3 Bft) 100,00 %
09.11.2022 22:48 10,8 C 10,0 C 6,7 C 88 % 1016,6 hPa 0,0 l/m 0 min 0 min 0 W/m 16,1 km/h (3 Bft) 100,00 %
09.11.2022 22:50 10,8 C 10,0 C 6,7 C 88 % 1016,7 hPa 0,0 l/m 0 min 0 min 0 W/m 16,1 km/h (3 Bft) 97,87 %
09.11.2022 22:52 10,8 C 10,0 C 6,7 C 88 % 1016,7 hPa 0,0 l/m 0 min 0 min 0 W/m 12,9 km/h (3 Bft) 97,87 %
09.11.2022 22:54 10,8 C 10,0 C 6,7 C 88 % 1016,6 hPa 0,0 l/m 0 min 0 min 0 W/m 16,1 km/h (3 Bft) 95,74 %
09.11.2022 22:56 10,8 C 10,0 C 6,7 C 88 % 1016,6 hPa 0,0 l/m 0 min 0 min 0 W/m 19,3 km/h (3 Bft) 97,87 %
09.11.2022 22:58 10,8 C 10,0 C 6,7 C 88 % 1016,7 hPa 0,0 l/m 0 min 0 min 0 W/m 9,7 km/h (2 Bft) 95,65 %
09.11.2022 23:00 10,8 C 10,0 C 6,7 C 88 % 1016,6 hPa 0,0 l/m 0 min 0 min 0 W/m 12,9 km/h (3 Bft) 97,87 %
09.11.2022 23:02 10,8 C 10,0 C 6,7 C 88 % 1016,7 hPa 0,0 l/m 0 min 0 min 0 W/m 29,0 km/h (5 Bft) 97,87 %
09.11.2022 23:04 10,8 C 10,0 C 6,7 C 88 % 1016,8 hPa 0,0 l/m 0 min 0 min 0 W/m 16,1 km/h (3 Bft) 97,67 %
09.11.2022 23:06 10,8 C 10,0 C 6,7 C 88 % 1016,8 hPa 0,0 l/m 0 min 0 min 0 W/m 12,9 km/h (3 Bft) 98,28 %
09.11.2022 23:08 10,8 C 10,0 C 6,7 C 88 % 1016,8 hPa 0,0 l/m 0 min 0 min 0 W/m 6,4 km/h (2 Bft) 97,22 %
09.11.2022 23:10 10,8 C 10,0 C 6,7 C 88 % 1016,8 hPa 0,0 l/m 0 min 0 min 0 W/m 16,1 km/h (3 Bft) 95,65 %
09.11.2022 23:12 10,8 C 10,0 C 6,7 C 88 % 1016,8 hPa 0,0 l/m 0 min 0 min 0 W/m 19,3 km/h (3 Bft) 95,74 %
09.11.2022 23:14 10,7 C 10,0 C 6,7 C 88 % 1016,9 hPa 0,0 l/m 0 min 0 min 0 W/m 16,1 km/h (3 Bft) 95,74 %
09.11.2022 23:16 10,7 C 10,0 C 6,7 C 88 % 1016,9 hPa 0,0 l/m 0 min 0 min 0 W/m 19,3 km/h (3 Bft) 93,62 %
09.11.2022 23:18 10,7 C 10,0 C 6,7 C 88 % 1016,9 hPa 0,0 l/m 0 min 0 min 0 W/m 16,1 km/h (3 Bft) 95,74 %
09.11.2022 23:20 10,7 C 10,0 C 6,7 C 88 % 1016,8 hPa 0,0 l/m 0 min 0 min 0 W/m 9,7 km/h (2 Bft) 95,74 %
09.11.2022 23:22 10,7 C 10,0 C 6,7 C 89 % 1016,8 hPa 0,0 l/m 0 min 0 min 0 W/m 16,1 km/h (3 Bft) 95,65 %
09.11.2022 23:24 10,7 C 10,0 C 6,7 C 89 % 1016,9 hPa 0,0 l/m 0 min 0 min 0 W/m 16,1 km/h (3 Bft) 95,74 %
09.11.2022 23:26 10,7 C 10,0 C 6,7 C 89 % 1016,9 hPa 0,0 l/m 0 min 0 min 0 W/m 9,7 km/h (2 Bft) 93,62 %
09.11.2022 23:28 10,7 C 10,0 C 6,7 C 89 % 1016,9 hPa 0,0 l/m 0 min 0 min 0 W/m 6,4 km/h (2 Bft) 93,62 %
09.11.2022 23:30 10,7 C 10,0 C 6,7 C 89 % 1016,9 hPa 0,0 l/m 0 min 0 min 0 W/m 12,9 km/h (3 Bft) 95,74 %
09.11.2022 23:32 10,7 C 10,0 C 6,7 C 89 % 1016,8 hPa 0,0 l/m 0 min 0 min 0 W/m 16,1 km/h (3 Bft) 95,74 %
09.11.2022 23:34 10,7 C 10,0 C 6,7 C 89 % 1016,8 hPa 0,0 l/m 0 min 0 min 0 W/m 12,9 km/h (3 Bft) 97,83 %
09.11.2022 23:36 10,7 C 10,0 C 6,7 C 89 % 1016,9 hPa 0,0 l/m 0 min 0 min 0 W/m 9,7 km/h (2 Bft) 97,87 %
09.11.2022 23:38 10,6 C 10,0 C 6,7 C 89 % 1016,9 hPa 0,0 l/m 0 min 0 min 0 W/m 12,9 km/h (3 Bft) 95,74 %
09.11.2022 23:40 10,7 C 10,0 C 6,7 C 89 % 1016,9 hPa 0,0 l/m 0 min 0 min 0 W/m 12,9 km/h (3 Bft) 95,74 %
09.11.2022 23:42 10,7 C 10,0 C 6,7 C 89 % 1016,9 hPa 0,0 l/m 0 min 0 min 0 W/m 12,9 km/h (3 Bft) 93,62 %
09.11.2022 23:44 10,6 C 10,0 C 6,7 C 89 % 1016,9 hPa 0,0 l/m 0 min 0 min 0 W/m 9,7 km/h (2 Bft) 93,62 %
09.11.2022 23:46 10,6 C 10,0 C 6,7 C 89 % 1016,9 hPa 0,0 l/m 0 min 0 min 0 W/m 16,1 km/h (3 Bft) 93,48 %
09.11.2022 23:48 10,6 C 10,0 C 6,7 C 89 % 1016,9 hPa 0,0 l/m 0 min 0 min 0 W/m 6,4 km/h (2 Bft) 95,74 %
09.11.2022 23:50 10,7 C 10,0 C 6,7 C 89 % 1017,0 hPa 0,0 l/m 0 min 0 min 0 W/m 16,1 km/h (3 Bft) 96,30 %
09.11.2022 23:52 10,6 C 10,0 C 6,7 C 89 % 1017,0 hPa 0,0 l/m 0 min 0 min 0 W/m 12,9 km/h (3 Bft) 96,00 %
09.11.2022 23:54 10,6 C 10,0 C 6,7 C 89 % 1017,0 hPa 0,0 l/m 0 min 0 min 0 W/m 6,4 km/h (2 Bft) 95,74 %
09.11.2022 23:56 10,6 C 9,4 C 6,7 C 89 % 1017,1 hPa 0,0 l/m 0 min 0 min 0 W/m 6,4 km/h (2 Bft) 93,75 %
09.11.2022 23:58 10,6 C 9,4 C 6,7 C 89 % 1017,2 hPa 0,0 l/m 0 min 0 min 0 W/m 12,9 km/h (3 Bft) 95,74 %
_ Min-Zeit 23:38 23:56 21:18 14:32 01:32 - - - - 00:12 20:36
Minimum _ 10,6 C 9,4 C 6,7 C 72 % 1006,7 hPa - - - - 3,2 km/h (1 Bft) 29,03 %
_ Max-Zeit 14:36 10:06 14:00 08:48 23:58 00:00 13:44 05:40 13:56 12:46 00:04
Maximum _ 15,3 C 17,2 C 11,1 C 89 % 1017,2 hPa 0,0 l/m 4 min 2 min 406 W/m 51,5 km/h
S (7 Bft)
100,00 %
Durchschnitt _ 13,2 C 12,6 C 8,8 C 83 % 1010,5 hPa #0,0 l/m #2:40 h #14 min. 103 W/m 17,3 km/h (3 Bft) 97,11 %
© 2022 W. Hausmann